GEFSSGP_prec_meanprecacc_198.txt.gz
Total_Precipitation_Accumulation
0.05 0.13 0.29 0.45 0.75 1.19 1.15 0.67 0.43 0.40 0.44 0.43 0.51 0.51 0.47 0.47 0.63 1.01 0.41 0.14 0.07 0.05 0.06 0.13 0.15 0.14 0.15 0.17 0.22 0.26 0.26 0.24 0.21 0.20 0.20 0.23 0.26 0.24 0.24 0.28 0.34 0.37 0.38 0.36 0.36 0.36 0.37 0.37 0.42
0.06 0.13 0.27 0.52 1.05 1.53 1.19 0.57 0.37 0.41 0.42 0.41 0.45 0.53 0.59 0.40 0.26 0.23 0.20 0.12 0.06 0.04 0.04 0.08 0.13 0.13 0.13 0.15 0.20 0.25 0.27 0.25 0.23 0.22 0.22 0.24 0.29 0.34 0.33 0.35 0.40 0.40 0.38 0.35 0.34 0.32 0.32 0.33 0.37
0.07 0.12 0.24 0.59 0.92 1.11 0.84 0.40 0.35 0.33 0.43 0.49 0.50 0.49 0.54 0.35 0.23 0.15 0.15 0.12 0.07 0.04 0.05 0.12 0.14 0.11 0.10 0.13 0.19 0.23 0.24 0.22 0.21 0.19 0.23 0.26 0.31 0.36 0.40 0.39 0.39 0.41 0.39 0.35 0.32 0.28 0.27 0.30 0.35
0.07 0.11 0.27 0.51 0.52 0.52 0.44 0.32 0.29 0.29 0.41 0.48 0.57 0.56 0.44 0.28 0.25 0.21 0.15 0.13 0.07 0.06 0.06 0.10 0.14 0.12 0.11 0.11 0.14 0.20 0.23 0.21 0.22 0.23 0.26 0.29 0.31 0.34 0.34 0.33 0.34 0.38 0.38 0.35 0.31 0.25 0.28 0.33 0.37
0.07 0.15 0.40 0.46 0.37 0.42 0.40 0.31 0.29 0.25 0.36 0.50 0.50 0.60 0.58 0.38 0.26 0.20 0.15 0.16 0.11 0.07 0.07 0.09 0.12 0.12 0.12 0.12 0.14 0.17 0.21 0.22 0.23 0.25 0.26 0.29 0.32 0.36 0.33 0.30 0.30 0.35 0.37 0.34 0.30 0.27 0.32 0.36 0.40
0.06 0.20 0.38 0.35 0.28 0.28 0.29 0.25 0.27 0.28 0.37 0.59 0.50 0.59 0.77 0.57 0.38 0.29 0.19 0.19 0.16 0.12 0.07 0.09 0.15 0.17 0.19 0.17 0.19 0.20 0.20 0.23 0.27 0.26 0.24 0.26 0.30 0.31 0.33 0.32 0.31 0.34 0.37 0.34 0.29 0.34 0.37 0.40 0.44
0.05 0.15 0.24 0.25 0.20 0.22 0.23 0.24 0.27 0.25 0.42 0.71 0.55 0.70 1.00 0.93 0.56 0.43 0.40 0.31 0.26 0.23 0.20 0.16 0.17 0.21 0.25 0.27 0.25 0.26 0.26 0.26 0.30 0.29 0.27 0.29 0.29 0.29 0.32 0.40 0.41 0.39 0.40 0.37 0.31 0.31 0.32 0.32 0.38
0.03 0.06 0.12 0.17 0.16 0.16 0.16 0.18 0.21 0.34 0.45 0.58 0.48 0.71 1.20 1.08 0.68 0.62 0.68 0.60 0.63 0.57 0.43 0.28 0.26 0.28 0.25 0.24 0.30 0.34 0.31 0.30 0.31 0.30 0.29 0.31 0.32 0.33 0.38 0.43 0.48 0.51 0.49 0.45 0.38 0.33 0.33 0.37 0.43
0.03 0.07 0.12 0.13 0.13 0.13 0.12 0.14 0.17 0.30 0.46 0.61 0.64 0.70 0.92 0.82 0.79 0.85 0.94 0.99 1.00 1.07 0.89 0.54 0.40 0.37 0.37 0.30 0.32 0.43 0.42 0.38 0.38 0.41 0.41 0.49 0.61 0.61 0.71 0.67 0.72 0.72 0.67 0.62 0.59 0.57 0.55 0.51 0.47
0.03 0.07 0.07 0.07 0.08 0.11 0.10 0.13 0.21 0.35 0.61 0.88 0.90 0.90 1.06 0.99 0.81 0.85 0.90 1.04 1.13 1.25 1.13 0.83 0.70 0.53 0.45 0.41 0.52 0.69 0.64 0.65 0.65 0.75 0.75 0.99 1.20 1.13 0.89 0.96 1.19 1.19 1.16 1.06 1.05 1.05 0.88 0.70 0.66
0.02 0.03 0.04 0.05 0.05 0.07 0.09 0.13 0.20 0.40 0.76 1.20 1.45 1.47 1.33 1.19 1.10 1.05 1.00 1.17 1.37 1.39 1.24 1.00 0.96 0.86 0.69 0.77 0.71 0.83 0.98 1.09 0.96 0.93 1.01 1.34 1.27 1.04 1.03 1.11 1.33 1.54 1.49 1.39 1.54 1.63 1.33 1.27 1.50
0.01 0.01 0.01 0.02 0.03 0.04 0.09 0.13 0.21 0.39 0.73 1.01 1.24 1.53 1.65 1.49 1.51 1.47 1.42 1.66 1.83 1.71 1.53 1.31 1.16 1.04 1.00 0.97 0.91 0.93 0.98 1.12 1.07 1.20 1.20 1.38 1.59 1.52 1.51 1.59 1.64 1.76 1.88 2.14 2.08 2.13 1.96 1.86 1.80
0.01 0.01 0.02 0.02 0.03 0.04 0.07 0.17 0.28 0.42 0.55 0.77 0.93 1.10 1.36 1.70 2.01 2.10 2.17 2.57 2.41 2.22 2.08 1.88 1.55 1.50 1.41 1.44 1.42 1.20 1.21 1.28 1.38 1.55 1.55 1.52 1.73 1.77 1.84 1.87 1.90 1.80 1.92 2.09 2.32 2.24 2.32 2.38 2.18
0.01 0.02 0.02 0.04 0.04 0.05 0.09 0.22 0.28 0.45 0.54 0.68 0.89 1.09 1.62 2.20 2.37 2.62 2.98 3.29 3.13 2.90 2.90 2.69 2.34 2.27 2.13 1.91 1.79 1.71 1.58 1.68 1.73 1.80 1.81 1.80 2.01 2.17 2.11 1.95 1.96 1.89 1.93 2.00 2.18 2.29 2.59 2.56 2.48
0.01 0.03 0.05 0.06 0.06 0.08 0.11 0.29 0.37 0.54 0.64 0.76 1.11 1.30 1.75 2.09 2.36 2.50 2.94 3.30 3.26 3.18 3.35 3.34 3.18 3.15 2.96 2.65 2.32 2.08 2.04 1.95 2.08 2.16 2.14 2.18 2.24 2.37 2.28 2.14 1.97 2.00 2.04 2.15 2.18 2.32 2.60 2.58 2.47
0.03 0.08 0.14 0.11 0.09 0.12 0.20 0.56 0.53 0.63 0.85 1.09 1.33 1.47 1.71 1.88 2.25 2.39 2.75 3.24 3.47 3.47 3.66 3.87 3.82 3.80 3.53 3.22 2.89 2.60 2.42 2.34 2.34 2.33 2.33 2.26 2.40 2.44 2.42 2.20 1.96 2.10 2.07 2.17 2.37 2.47 2.63 2.78 2.79
0.05 0.11 0.19 0.22 0.18 0.14 0.31 0.74 0.77 0.86 1.00 1.12 1.24 1.48 1.65 1.64 2.00 2.43 2.74 3.30 3.69 3.82 4.19 4.54 4.60 4.48 4.10 3.64 3.38 3.25 3.01 2.77 2.59 2.58 2.45 2.38 2.42 2.33 2.38 2.16 2.05 2.17 2.30 2.30 2.16 2.57 2.80 2.84 2.86
0.06 0.07 0.13 0.20 0.20 0.19 0.37 0.58 0.72 0.92 1.07 1.19 1.20 1.32 1.36 1.50 1.97 2.50 2.84 3.18 3.81 4.33 4.91 4.92 4.83 5.06 4.82 4.43 4.15 3.86 3.46 3.14 2.84 2.69 2.52 2.33 2.24 2.18 2.38 2.07 2.04 2.25 2.41 2.39 2.45 2.77 2.88 2.75 2.86
0.06 0.10 0.18 0.22 0.21 0.33 0.51 0.68 0.81 0.94 0.99 1.16 1.26 1.22 1.26 1.56 1.98 2.40 2.80 3.20 3.60 4.16 4.69 5.20 5.22 5.10 4.87 4.51 4.03 3.64 3.27 3.09 2.84 2.59 2.37 2.31 2.28 2.33 2.61 2.32 2.39 2.35 2.31 2.33 2.50 2.69 2.61 2.46 2.83
0.08 0.13 0.22 0.27 0.23 0.33 0.51 0.77 0.94 0.95 0.94 1.02 1.19 1.35 1.37 1.64 1.95 2.38 2.84 3.08 3.24 3.57 4.02 4.40 4.61 4.25 3.81 3.59 3.49 3.35 3.32 2.97 2.82 2.75 2.69 2.49 2.49 2.42 2.40 2.46 2.35 2.37 2.39 2.21 2.27 2.53 2.41 2.06 2.43
0.10 0.11 0.13 0.18 0.21 0.34 0.55 0.92 1.05 0.89 0.85 0.93 1.05 1.34 1.54 1.59 1.85 2.17 2.61 2.80 2.87 3.02 3.18 3.32 3.44 3.40 3.34 3.42 3.51 3.56 3.64 3.33 3.20 3.09 2.93 2.62 2.56 2.46 2.46 2.30 2.17 2.22 2.17 2.05 2.01 2.20 2.28 2.07 2.06
0.13 0.08 0.06 0.10 0.23 0.50 0.63 1.10 1.23 1.01 0.95 1.01 1.06 1.19 1.29 1.44 1.53 1.65 1.96 2.36 2.35 2.38 2.62 3.00 3.13 3.19 3.35 3.60 3.60 3.57 3.46 3.31 3.29 3.36 3.32 3.21 2.99 2.72 2.50 2.27 2.10 1.99 1.90 1.91 1.70 1.91 2.04 2.09 1.79
0.07 0.05 0.06 0.11 0.22 0.42 0.52 0.81 1.09 1.14 1.08 1.00 0.99 1.10 1.16 1.23 1.28 1.37 1.56 1.99 2.09 2.01 2.25 2.70 3.14 3.35 3.54 3.74 3.81 3.97 3.83 3.60 3.42 3.44 3.48 3.27 3.07 2.81 2.51 2.36 2.21 2.05 1.90 1.79 1.71 1.83 1.77 1.76 1.67
0.05 0.07 0.16 0.23 0.43 0.79 0.64 0.68 1.10 1.11 0.96 0.87 0.79 0.83 0.94 0.92 0.97 1.09 1.34 1.79 2.06 2.15 2.35 2.64 2.99 3.29 3.51 3.63 3.68 3.68 3.62 3.51 3.27 3.14 2.91 2.62 2.52 2.41 2.24 2.15 2.04 1.89 1.87 1.87 1.81 1.74 1.68 1.69 1.74
0.06 0.16 0.54 0.86 1.14 1.18 0.63 0.65 0.98 0.86 0.82 0.75 0.81 0.84 0.75 0.74 0.81 0.78 0.86 1.04 1.20 1.39 1.62 1.82 2.08 2.40 2.70 2.90 2.97 2.90 3.02 2.99 2.70 2.47 2.31 2.04 1.84 1.68 1.67 1.74 1.74 1.68 1.71 1.74 1.79 1.65 1.56 1.62 1.71
0.07 0.11 0.34 0.56 0.72 0.86 0.78 1.08 1.07 0.74 0.65 0.65 0.73 0.69 0.54 0.51 0.50 0.48 0.53 0.61 0.82 1.05 1.35 1.52 1.61 1.74 2.03 2.22 2.26 2.28 2.32 2.25 2.06 2.11 1.91 1.72 1.57 1.44 1.51 1.57 1.55 1.54 1.56 1.54 1.68 1.53 1.45 1.47 1.47
0.06 0.06 0.10 0.17 0.29 0.58 0.90 1.24 1.15 0.79 0.70 0.64 0.55 0.47 0.41 0.33 0.32 0.33 0.36 0.45 0.61 0.86 1.05 1.15 1.32 1.51 1.77 2.00 1.96 1.91 1.77 1.72 1.76 1.76 1.64 1.54 1.55 1.45 1.50 1.45 1.48 1.51 1.56 1.62 1.67 1.52 1.44 1.53 1.45
0.07 0.08 0.09 0.14 0.30 0.52 0.81 1.16 1.28 1.00 0.91 0.72 0.63 0.65 0.46 0.29 0.26 0.29 0.31 0.40 0.47 0.59 0.80 1.00 1.17 1.39 1.55 1.67 1.68 1.57 1.54 1.49 1.51 1.47 1.43 1.39 1.46 1.54 1.57 1.52 1.56 1.56 1.54 1.57 1.58 1.37 1.37 1.53 1.56
0.10 0.10 0.10 0.11 0.15 0.36 0.72 0.97 0.92 0.88 0.78 0.65 0.65 0.61 0.47 0.34 0.25 0.24 0.29 0.36 0.49 0.63 0.81 1.04 1.21 1.31 1.39 1.38 1.40 1.44 1.39 1.38 1.40 1.32 1.27 1.31 1.44 1.52 1.53 1.51 1.54 1.53 1.50 1.54 1.54 1.38 1.47 1.55 1.56
0.11 0.11 0.12 0.16 0.15 0.17 0.38 0.69 0.63 0.59 0.58 0.60 0.60 0.59 0.51 0.41 0.36 0.36 0.41 0.47 0.55 0.66 0.80 1.05 1.29 1.34 1.39 1.45 1.57 1.66 1.67 1.66 1.58 1.40 1.31 1.38 1.46 1.53 1.56 1.57 1.59 1.49 1.50 1.65 1.67 1.57 1.64 1.67 1.62

GEFSSGP_prec_meanprecacc_204.txt.gz
Total_Precipitation_Accumulation
0.05 0.13 0.29 0.45 0.75 1.19 1.15 0.67 0.43 0.41 0.45 0.43 0.52 0.52 0.48 0.47 0.64 1.03 0.43 0.16 0.09 0.08 0.10 0.17 0.21 0.18 0.20 0.22 0.28 0.33 0.31 0.27 0.25 0.24 0.24 0.28 0.32 0.31 0.31 0.33 0.38 0.42 0.46 0.42 0.41 0.41 0.41 0.43 0.47
0.06 0.13 0.27 0.52 1.05 1.53 1.19 0.57 0.38 0.42 0.43 0.41 0.45 0.53 0.60 0.40 0.26 0.24 0.21 0.13 0.07 0.05 0.06 0.10 0.17 0.17 0.17 0.19 0.24 0.32 0.32 0.29 0.26 0.26 0.26 0.28 0.34 0.41 0.40 0.40 0.46 0.46 0.46 0.39 0.38 0.36 0.35 0.38 0.43
0.07 0.12 0.24 0.59 0.92 1.11 0.84 0.40 0.35 0.33 0.44 0.49 0.51 0.49 0.54 0.35 0.23 0.16 0.16 0.12 0.07 0.05 0.07 0.14 0.17 0.14 0.14 0.16 0.23 0.30 0.29 0.26 0.24 0.24 0.28 0.31 0.35 0.41 0.45 0.46 0.46 0.46 0.45 0.40 0.36 0.30 0.30 0.33 0.39
0.07 0.11 0.27 0.51 0.53 0.52 0.45 0.32 0.30 0.30 0.42 0.49 0.57 0.57 0.44 0.28 0.26 0.21 0.15 0.13 0.07 0.06 0.07 0.11 0.16 0.15 0.13 0.14 0.18 0.26 0.28 0.25 0.26 0.28 0.32 0.35 0.36 0.40 0.40 0.40 0.41 0.43 0.43 0.41 0.37 0.28 0.32 0.39 0.43
0.07 0.15 0.40 0.47 0.37 0.42 0.40 0.31 0.29 0.26 0.36 0.51 0.51 0.61 0.58 0.38 0.27 0.20 0.15 0.17 0.11 0.07 0.07 0.10 0.15 0.15 0.14 0.15 0.18 0.22 0.28 0.27 0.27 0.28 0.30 0.33 0.37 0.40 0.39 0.35 0.36 0.41 0.43 0.39 0.34 0.32 0.37 0.43 0.47
0.06 0.20 0.38 0.35 0.28 0.28 0.29 0.25 0.27 0.28 0.38 0.60 0.50 0.59 0.77 0.57 0.38 0.29 0.20 0.20 0.17 0.12 0.08 0.11 0.18 0.20 0.22 0.21 0.23 0.24 0.25 0.28 0.31 0.29 0.27 0.29 0.33 0.34 0.37 0.37 0.37 0.39 0.43 0.39 0.33 0.38 0.42 0.46 0.50
0.05 0.15 0.24 0.25 0.20 0.22 0.23 0.25 0.27 0.26 0.43 0.71 0.55 0.70 1.01 0.93 0.56 0.43 0.41 0.31 0.26 0.23 0.21 0.17 0.21 0.25 0.29 0.31 0.30 0.31 0.30 0.30 0.34 0.33 0.31 0.32 0.31 0.31 0.35 0.44 0.44 0.42 0.43 0.41 0.35 0.35 0.37 0.39 0.42
0.03 0.06 0.12 0.17 0.17 0.16 0.16 0.18 0.21 0.34 0.46 0.58 0.48 0.71 1.20 1.08 0.68 0.62 0.68 0.61 0.64 0.58 0.44 0.29 0.28 0.32 0.29 0.29 0.36 0.41 0.36 0.35 0.35 0.33 0.33 0.33 0.34 0.35 0.40 0.44 0.51 0.55 0.52 0.49 0.42 0.36 0.37 0.43 0.48
0.03 0.07 0.12 0.13 0.13 0.13 0.13 0.14 0.17 0.30 0.46 0.61 0.64 0.70 0.92 0.82 0.79 0.85 0.94 0.99 1.00 1.07 0.89 0.55 0.42 0.41 0.42 0.37 0.39 0.51 0.49 0.42 0.41 0.44 0.45 0.52 0.64 0.63 0.73 0.69 0.76 0.77 0.72 0.67 0.64 0.61 0.58 0.54 0.51
0.03 0.07 0.07 0.07 0.08 0.11 0.10 0.14 0.21 0.35 0.61 0.88 0.90 0.90 1.06 0.99 0.81 0.85 0.90 1.04 1.14 1.25 1.15 0.84 0.73 0.56 0.48 0.44 0.55 0.74 0.69 0.68 0.69 0.79 0.78 1.01 1.22 1.15 0.91 1.00 1.24 1.24 1.21 1.10 1.09 1.09 0.90 0.72 0.68
0.02 0.03 0.04 0.05 0.05 0.07 0.09 0.13 0.21 0.40 0.76 1.20 1.45 1.47 1.33 1.19 1.10 1.05 1.00 1.17 1.37 1.39 1.25 1.01 0.97 0.86 0.70 0.80 0.74 0.86 1.01 1.11 0.98 0.96 1.03 1.37 1.30 1.07 1.06 1.15 1.37 1.58 1.52 1.42 1.57 1.66 1.36 1.30 1.53
0.01 0.01 0.01 0.02 0.03 0.04 0.09 0.13 0.21 0.39 0.73 1.01 1.24 1.53 1.65 1.49 1.51 1.47 1.42 1.66 1.84 1.71 1.53 1.32 1.17 1.06 1.01 0.99 0.93 0.95 0.99 1.13 1.08 1.22 1.23 1.44 1.64 1.56 1.54 1.64 1.66 1.78 1.91 2.18 2.11 2.16 1.99 1.89 1.82
0.01 0.01 0.02 0.02 0.03 0.04 0.07 0.17 0.28 0.42 0.55 0.77 0.93 1.10 1.36 1.70 2.01 2.10 2.17 2.57 2.41 2.22 2.08 1.88 1.56 1.52 1.45 1.47 1.44 1.22 1.22 1.29 1.40 1.58 1.62 1.60 1.78 1.82 1.89 1.91 1.94 1.82 1.93 2.11 2.35 2.26 2.36 2.41 2.20
0.01 0.02 0.02 0.04 0.05 0.05 0.09 0.22 0.28 0.45 0.54 0.68 0.89 1.09 1.62 2.20 2.37 2.63 2.98 3.29 3.13 2.90 2.90 2.69 2.35 2.29 2.18 1.94 1.81 1.74 1.60 1.70 1.76 1.84 1.86 1.87 2.08 2.22 2.16 1.99 2.01 1.92 1.96 2.04 2.23 2.32 2.65 2.61 2.52
0.01 0.03 0.05 0.06 0.06 0.09 0.11 0.29 0.37 0.54 0.64 0.76 1.11 1.31 1.75 2.09 2.36 2.50 2.94 3.30 3.27 3.20 3.36 3.35 3.19 3.16 3.00 2.68 2.34 2.12 2.07 1.98 2.12 2.22 2.19 2.24 2.29 2.43 2.34 2.20 2.03 2.04 2.09 2.21 2.25 2.39 2.66 2.64 2.52
0.03 0.08 0.14 0.11 0.09 0.12 0.20 0.56 0.54 0.63 0.85 1.09 1.33 1.47 1.72 1.88 2.25 2.39 2.75 3.24 3.48 3.48 3.67 3.88 3.82 3.81 3.56 3.25 2.93 2.67 2.48 2.39 2.37 2.36 2.39 2.32 2.45 2.49 2.48 2.26 2.00 2.15 2.12 2.23 2.46 2.56 2.72 2.86 2.86
0.05 0.11 0.19 0.22 0.18 0.14 0.31 0.74 0.77 0.86 1.00 1.12 1.24 1.48 1.65 1.64 2.00 2.43 2.74 3.30 3.71 3.85 4.22 4.56 4.61 4.50 4.12 3.68 3.42 3.30 3.07 2.82 2.63 2.62 2.51 2.43 2.47 2.38 2.45 2.25 2.14 2.24 2.37 2.38 2.23 2.68 2.93 2.97 2.96
0.06 0.07 0.13 0.20 0.20 0.19 0.37 0.58 0.72 0.92 1.07 1.19 1.20 1.32 1.36 1.50 1.97 2.50 2.84 3.19 3.83 4.36 4.93 4.95 4.87 5.10 4.85 4.46 4.18 3.91 3.51 3.18 2.90 2.75 2.59 2.40 2.31 2.24 2.46 2.16 2.14 2.33 2.50 2.49 2.55 2.88 2.99 2.84 2.94
0.06 0.10 0.18 0.23 0.21 0.33 0.52 0.69 0.81 0.94 0.99 1.16 1.26 1.22 1.26 1.56 1.99 2.41 2.81 3.22 3.63 4.19 4.73 5.25 5.28 5.16 4.91 4.55 4.07 3.70 3.33 3.14 2.90 2.64 2.44 2.38 2.35 2.39 2.69 2.38 2.50 2.45 2.41 2.44 2.59 2.77 2.70 2.54 2.89
0.08 0.13 0.22 0.27 0.23 0.33 0.51 0.77 0.94 0.95 0.94 1.02 1.19 1.35 1.38 1.64 1.96 2.39 2.86 3.11 3.26 3.60 4.05 4.44 4.66 4.31 3.86 3.63 3.55 3.41 3.38 3.03 2.87 2.81 2.78 2.55 2.55 2.48 2.46 2.53 2.44 2.46 2.48 2.30 2.37 2.63 2.50 2.14 2.51
0.10 0.11 0.13 0.18 0.21 0.34 0.55 0.92 1.05 0.89 0.85 0.93 1.05 1.34 1.54 1.60 1.87 2.19 2.63 2.83 2.88 3.04 3.22 3.36 3.49 3.48 3.42 3.47 3.57 3.62 3.70 3.39 3.25 3.15 3.01 2.69 2.60 2.51 2.51 2.35 2.23 2.30 2.25 2.13 2.11 2.30 2.39 2.18 2.15
0.14 0.08 0.06 0.10 0.23 0.50 0.63 1.10 1.23 1.01 0.95 1.01 1.06 1.19 1.29 1.45 1.53 1.67 1.99 2.40 2.37 2.39 2.64 3.06 3.19 3.27 3.44 3.67 3.66 3.64 3.51 3.38 3.36 3.44 3.40 3.29 3.04 2.77 2.55 2.32 2.17 2.05 1.95 1.98 1.77 1.99 2.13 2.21 1.91
0.08 0.05 0.06 0.11 0.22 0.42 0.52 0.81 1.09 1.14 1.08 1.00 0.99 1.10 1.16 1.23 1.28 1.38 1.57 2.01 2.11 2.02 2.28 2.76 3.23 3.43 3.61 3.81 3.87 4.04 3.88 3.67 3.51 3.53 3.57 3.35 3.13 2.86 2.55 2.41 2.27 2.13 1.96 1.86 1.78 1.91 1.85 1.85 1.78
0.05 0.07 0.16 0.23 0.43 0.79 0.64 0.68 1.10 1.11 0.96 0.87 0.79 0.83 0.94 0.92 0.97 1.10 1.36 1.82 2.07 2.16 2.38 2.68 3.09 3.40 3.58 3.69 3.72 3.74 3.67 3.58 3.36 3.24 2.99 2.68 2.57 2.46 2.29 2.20 2.10 1.96 1.94 1.93 1.88 1.82 1.76 1.77 1.82
0.06 0.16 0.54 0.86 1.14 1.18 0.63 0.65 0.98 0.86 0.82 0.75 0.81 0.84 0.75 0.74 0.81 0.78 0.86 1.05 1.20 1.39 1.63 1.86 2.13 2.46 2.74 2.94 3.00 2.93 3.06 3.06 2.79 2.55 2.39 2.11 1.90 1.73 1.71 1.78 1.78 1.73 1.77 1.79 1.85 1.72 1.64 1.70 1.80
0.07 0.11 0.34 0.56 0.72 0.86 0.78 1.08 1.07 0.74 0.65 0.65 0.73 0.69 0.54 0.51 0.51 0.48 0.53 0.62 0.83 1.05 1.36 1.55 1.66 1.78 2.08 2.26 2.30 2.32 2.37 2.31 2.13 2.17 1.97 1.78 1.61 1.49 1.55 1.61 1.59 1.58 1.61 1.57 1.74 1.59 1.51 1.55 1.56
0.06 0.06 0.10 0.17 0.29 0.58 0.90 1.24 1.15 0.79 0.70 0.64 0.55 0.47 0.41 0.33 0.32 0.33 0.37 0.45 0.62 0.87 1.07 1.18 1.35 1.56 1.85 2.06 2.00 1.95 1.81 1.78 1.82 1.80 1.68 1.58 1.59 1.48 1.53 1.48 1.51 1.54 1.59 1.66 1.73 1.58 1.50 1.61 1.54
0.07 0.08 0.09 0.14 0.30 0.52 0.81 1.16 1.28 1.00 0.91 0.72 0.63 0.65 0.46 0.29 0.27 0.29 0.31 0.40 0.48 0.60 0.82 1.02 1.19 1.43 1.59 1.71 1.71 1.59 1.58 1.55 1.57 1.52 1.47 1.43 1.49 1.57 1.59 1.54 1.58 1.57 1.56 1.60 1.63 1.43 1.43 1.61 1.65
0.10 0.10 0.10 0.11 0.15 0.36 0.72 0.97 0.92 0.88 0.78 0.65 0.65 0.61 0.47 0.34 0.25 0.24 0.29 0.37 0.50 0.64 0.82 1.06 1.23 1.34 1.44 1.43 1.44 1.47 1.44 1.43 1.45 1.37 1.31 1.34 1.48 1.55 1.54 1.52 1.55 1.54 1.51 1.57 1.59 1.43 1.53 1.64 1.67
0.11 0.11 0.12 0.16 0.15 0.17 0.38 0.69 0.63 0.59 0.58 0.60 0.60 0.59 0.51 0.42 0.36 0.36 0.41 0.47 0.56 0.67 0.82 1.08 1.32 1.37 1.44 1.50 1.60 1.69 1.72 1.72 1.64 1.44 1.34 1.40 1.48 1.54 1.57 1.59 1.60 1.50 1.51 1.68 1.72 1.62 1.68 1.73 1.71

GEFSSGP_prec_meanprecacc_210.txt.gz
Total_Precipitation_Accumulation
0.05 0.14 0.30 0.47 0.79 1.21 1.16 0.68 0.43 0.41 0.45 0.43 0.52 0.52 0.48 0.49 0.67 1.08 0.48 0.21 0.13 0.12 0.14 0.20 0.24 0.23 0.25 0.27 0.34 0.39 0.37 0.33 0.32 0.33 0.34 0.38 0.41 0.40 0.39 0.41 0.46 0.48 0.51 0.49 0.51 0.51 0.51 0.51 0.54
0.06 0.13 0.28 0.54 1.08 1.54 1.21 0.58 0.38 0.42 0.43 0.41 0.45 0.54 0.60 0.41 0.27 0.25 0.24 0.17 0.10 0.08 0.10 0.12 0.19 0.19 0.20 0.23 0.29 0.37 0.36 0.32 0.31 0.32 0.33 0.35 0.41 0.48 0.49 0.49 0.54 0.54 0.54 0.49 0.46 0.43 0.42 0.45 0.50
0.07 0.12 0.24 0.60 0.93 1.12 0.85 0.40 0.35 0.33 0.44 0.49 0.51 0.49 0.54 0.36 0.24 0.17 0.17 0.13 0.08 0.06 0.08 0.15 0.18 0.16 0.16 0.19 0.26 0.35 0.32 0.29 0.28 0.29 0.34 0.37 0.42 0.48 0.53 0.55 0.55 0.53 0.52 0.47 0.41 0.35 0.34 0.38 0.44
0.08 0.11 0.27 0.51 0.53 0.52 0.45 0.32 0.30 0.30 0.42 0.49 0.57 0.57 0.45 0.30 0.27 0.23 0.16 0.14 0.07 0.07 0.08 0.12 0.17 0.16 0.14 0.16 0.22 0.31 0.31 0.28 0.30 0.33 0.37 0.40 0.42 0.46 0.48 0.46 0.47 0.49 0.48 0.46 0.41 0.32 0.36 0.43 0.48
0.08 0.15 0.40 0.47 0.37 0.42 0.40 0.31 0.29 0.26 0.36 0.51 0.51 0.62 0.59 0.40 0.27 0.21 0.17 0.18 0.11 0.08 0.08 0.10 0.16 0.17 0.16 0.17 0.22 0.26 0.31 0.30 0.30 0.32 0.33 0.38 0.41 0.46 0.45 0.40 0.41 0.46 0.46 0.42 0.37 0.34 0.40 0.45 0.50
0.07 0.21 0.38 0.35 0.28 0.28 0.29 0.25 0.27 0.28 0.38 0.60 0.50 0.60 0.78 0.58 0.38 0.30 0.21 0.20 0.17 0.13 0.09 0.12 0.19 0.22 0.22 0.22 0.26 0.27 0.28 0.30 0.34 0.32 0.29 0.31 0.35 0.38 0.41 0.41 0.41 0.43 0.46 0.40 0.35 0.40 0.44 0.48 0.52
0.06 0.17 0.24 0.25 0.21 0.22 0.23 0.25 0.27 0.26 0.43 0.71 0.55 0.70 1.01 0.93 0.56 0.43 0.42 0.31 0.27 0.24 0.22 0.19 0.23 0.27 0.30 0.32 0.31 0.33 0.32 0.32 0.35 0.35 0.33 0.33 0.33 0.34 0.37 0.46 0.47 0.44 0.44 0.43 0.36 0.37 0.40 0.41 0.43
0.03 0.07 0.12 0.17 0.17 0.17 0.16 0.18 0.21 0.34 0.46 0.58 0.48 0.71 1.20 1.08 0.68 0.62 0.68 0.61 0.64 0.58 0.44 0.30 0.29 0.34 0.33 0.31 0.37 0.42 0.38 0.37 0.37 0.35 0.35 0.36 0.37 0.38 0.43 0.48 0.53 0.55 0.53 0.50 0.43 0.37 0.38 0.44 0.49
0.03 0.07 0.12 0.13 0.14 0.13 0.13 0.14 0.17 0.30 0.46 0.61 0.64 0.70 0.92 0.82 0.79 0.86 0.95 0.99 1.01 1.08 0.90 0.56 0.44 0.44 0.47 0.40 0.40 0.53 0.51 0.44 0.44 0.47 0.48 0.64 0.79 0.70 0.80 0.74 0.79 0.78 0.73 0.69 0.64 0.61 0.58 0.55 0.51
0.03 0.08 0.08 0.07 0.08 0.11 0.11 0.14 0.21 0.35 0.61 0.88 0.90 0.90 1.06 0.99 0.81 0.85 0.90 1.05 1.15 1.27 1.16 0.85 0.74 0.57 0.51 0.47 0.58 0.80 0.75 0.74 0.78 0.88 0.86 1.13 1.33 1.23 0.95 1.04 1.27 1.26 1.22 1.11 1.10 1.10 0.92 0.74 0.70
0.03 0.04 0.04 0.05 0.05 0.07 0.09 0.13 0.21 0.40 0.76 1.20 1.45 1.47 1.33 1.19 1.10 1.05 1.01 1.18 1.39 1.42 1.27 1.03 0.98 0.87 0.72 0.84 0.77 0.90 1.07 1.20 1.08 1.02 1.09 1.42 1.34 1.11 1.10 1.20 1.40 1.61 1.54 1.44 1.60 1.69 1.40 1.32 1.56
0.01 0.01 0.01 0.02 0.03 0.04 0.09 0.13 0.22 0.39 0.73 1.01 1.24 1.53 1.65 1.49 1.51 1.47 1.43 1.66 1.85 1.73 1.55 1.33 1.19 1.07 1.03 1.03 0.96 0.98 1.03 1.19 1.20 1.29 1.28 1.49 1.69 1.62 1.61 1.71 1.71 1.82 1.95 2.22 2.15 2.20 2.01 1.90 1.83
0.01 0.02 0.02 0.02 0.03 0.04 0.07 0.17 0.29 0.42 0.55 0.77 0.93 1.10 1.36 1.70 2.01 2.10 2.17 2.58 2.42 2.23 2.10 1.89 1.57 1.53 1.47 1.49 1.50 1.25 1.26 1.34 1.51 1.64 1.67 1.66 1.84 1.87 1.95 1.96 1.99 1.85 1.95 2.14 2.39 2.30 2.39 2.44 2.22
0.01 0.02 0.03 0.04 0.05 0.05 0.10 0.24 0.29 0.45 0.54 0.68 0.89 1.09 1.62 2.20 2.37 2.63 2.99 3.29 3.14 2.91 2.93 2.71 2.36 2.30 2.19 1.97 1.86 1.77 1.63 1.75 1.81 1.90 1.92 1.92 2.14 2.29 2.22 2.05 2.07 1.96 1.99 2.08 2.27 2.36 2.70 2.64 2.55
0.01 0.03 0.05 0.06 0.07 0.09 0.13 0.31 0.39 0.54 0.64 0.76 1.11 1.31 1.75 2.09 2.36 2.50 2.97 3.31 3.28 3.21 3.38 3.38 3.21 3.17 3.01 2.71 2.38 2.16 2.10 2.02 2.19 2.28 2.23 2.28 2.33 2.48 2.40 2.27 2.09 2.08 2.11 2.24 2.29 2.42 2.72 2.69 2.56
0.03 0.08 0.15 0.12 0.11 0.12 0.21 0.62 0.56 0.63 0.85 1.09 1.33 1.47 1.72 1.88 2.25 2.39 2.75 3.24 3.48 3.49 3.69 3.90 3.85 3.84 3.60 3.31 2.98 2.72 2.51 2.43 2.42 2.41 2.43 2.35 2.47 2.52 2.55 2.33 2.06 2.19 2.15 2.26 2.51 2.63 2.79 2.93 2.91
0.06 0.12 0.23 0.25 0.19 0.15 0.32 0.77 0.78 0.86 1.00 1.12 1.24 1.48 1.65 1.64 2.00 2.43 2.74 3.31 3.72 3.86 4.23 4.58 4.64 4.55 4.17 3.74 3.47 3.35 3.11 2.87 2.68 2.65 2.54 2.46 2.49 2.41 2.51 2.32 2.21 2.29 2.44 2.45 2.29 2.78 3.02 3.06 3.05
0.07 0.08 0.14 0.21 0.20 0.19 0.38 0.59 0.72 0.92 1.07 1.19 1.21 1.32 1.36 1.50 1.97 2.50 2.84 3.20 3.84 4.36 4.94 4.96 4.90 5.14 4.90 4.52 4.25 3.99 3.57 3.23 2.94 2.79 2.65 2.45 2.35 2.28 2.51 2.23 2.20 2.38 2.57 2.58 2.64 2.99 3.09 2.95 3.07
0.06 0.11 0.19 0.23 0.21 0.33 0.52 0.69 0.81 0.94 0.99 1.16 1.26 1.22 1.26 1.57 1.99 2.41 2.81 3.22 3.63 4.19 4.74 5.26 5.31 5.20 4.96 4.62 4.14 3.77 3.39 3.18 2.93 2.69 2.49 2.42 2.37 2.43 2.76 2.44 2.58 2.50 2.49 2.52 2.69 2.89 2.84 2.69 3.04
0.09 0.14 0.22 0.27 0.23 0.33 0.52 0.78 0.94 0.96 0.94 1.02 1.19 1.35 1.38 1.64 1.97 2.40 2.87 3.11 3.27 3.60 4.06 4.45 4.68 4.35 3.91 3.69 3.62 3.48 3.44 3.06 2.91 2.86 2.83 2.58 2.58 2.54 2.52 2.62 2.53 2.54 2.57 2.39 2.46 2.74 2.60 2.25 2.63
0.12 0.12 0.13 0.18 0.21 0.34 0.56 0.96 1.08 0.90 0.85 0.93 1.06 1.34 1.54 1.60 1.87 2.20 2.63 2.83 2.89 3.05 3.22 3.37 3.50 3.52 3.47 3.53 3.65 3.69 3.77 3.44 3.30 3.22 3.09 2.74 2.65 2.57 2.58 2.45 2.35 2.41 2.33 2.24 2.22 2.40 2.49 2.29 2.27
0.14 0.08 0.06 0.10 0.23 0.51 0.63 1.12 1.26 1.02 0.96 1.01 1.06 1.19 1.29 1.45 1.54 1.67 1.99 2.40 2.37 2.40 2.66 3.08 3.21 3.32 3.50 3.73 3.73 3.71 3.58 3.44 3.43 3.52 3.49 3.36 3.10 2.82 2.59 2.40 2.27 2.16 2.05 2.10 1.86 2.09 2.26 2.33 2.02
0.08 0.05 0.06 0.11 0.23 0.43 0.52 0.83 1.11 1.15 1.09 1.00 0.99 1.10 1.16 1.24 1.29 1.38 1.58 2.01 2.11 2.03 2.31 2.78 3.26 3.49 3.66 3.86 3.93 4.11 3.94 3.73 3.59 3.62 3.66 3.45 3.22 2.92 2.60 2.47 2.35 2.21 2.05 1.95 1.88 2.03 1.97 1.97 1.90
0.05 0.08 0.16 0.24 0.43 0.80 0.64 0.69 1.11 1.12 0.97 0.87 0.79 0.83 0.94 0.92 0.97 1.10 1.36 1.82 2.07 2.16 2.39 2.70 3.13 3.46 3.65 3.75 3.79 3.81 3.76 3.69 3.47 3.35 3.10 2.77 2.66 2.53 2.34 2.27 2.18 2.04 2.02 2.01 1.95 1.91 1.86 1.88 1.95
0.06 0.16 0.54 0.87 1.14 1.18 0.63 0.66 1.01 0.86 0.82 0.75 0.81 0.84 0.76 0.74 0.81 0.79 0.87 1.05 1.20 1.40 1.64 1.87 2.16 2.50 2.80 3.00 3.07 3.00 3.15 3.16 2.90 2.66 2.48 2.20 1.98 1.80 1.78 1.84 1.84 1.79 1.83 1.87 1.94 1.82 1.73 1.81 1.92
0.07 0.12 0.35 0.57 0.73 0.86 0.78 1.09 1.08 0.74 0.65 0.65 0.73 0.70 0.56 0.52 0.52 0.50 0.54 0.62 0.83 1.05 1.36 1.56 1.68 1.82 2.12 2.33 2.37 2.39 2.45 2.40 2.24 2.28 2.06 1.85 1.68 1.53 1.59 1.65 1.63 1.62 1.65 1.62 1.81 1.66 1.59 1.66 1.67
0.06 0.06 0.10 0.19 0.29 0.58 0.90 1.25 1.15 0.79 0.70 0.64 0.55 0.48 0.44 0.35 0.33 0.36 0.40 0.45 0.62 0.87 1.07 1.19 1.38 1.60 1.89 2.11 2.07 2.03 1.88 1.85 1.90 1.88 1.74 1.63 1.63 1.53 1.56 1.51 1.56 1.58 1.63 1.70 1.79 1.63 1.56 1.71 1.65
0.07 0.08 0.09 0.14 0.30 0.53 0.82 1.17 1.29 1.01 0.91 0.72 0.63 0.66 0.47 0.30 0.28 0.36 0.36 0.41 0.48 0.60 0.83 1.03 1.22 1.47 1.64 1.77 1.78 1.67 1.66 1.60 1.62 1.57 1.54 1.50 1.55 1.61 1.63 1.58 1.62 1.62 1.60 1.64 1.68 1.47 1.48 1.67 1.74
0.10 0.10 0.10 0.11 0.15 0.36 0.73 0.99 0.93 0.88 0.78 0.65 0.65 0.62 0.48 0.34 0.25 0.25 0.30 0.37 0.50 0.64 0.83 1.08 1.26 1.38 1.49 1.49 1.50 1.54 1.49 1.47 1.49 1.42 1.38 1.41 1.56 1.61 1.58 1.56 1.59 1.58 1.55 1.62 1.64 1.47 1.57 1.68 1.72
0.11 0.11 0.12 0.16 0.15 0.17 0.39 0.72 0.64 0.62 0.64 0.61 0.61 0.60 0.51 0.42 0.36 0.36 0.41 0.47 0.56 0.67 0.83 1.11 1.35 1.41 1.48 1.54 1.64 1.74 1.77 1.78 1.70 1.50 1.41 1.47 1.55 1.60 1.62 1.62 1.63 1.54 1.56 1.74 1.77 1.67 1.73 1.78 1.76

GEFSSGP_prec_meanprecacc_216.txt.gz
Total_Precipitation_Accumulation
0.06 0.16 0.34 0.49 0.83 1.24 1.17 0.68 0.44 0.42 0.46 0.44 0.52 0.52 0.49 0.50 0.68 1.12 0.59 0.28 0.16 0.15 0.17 0.23 0.27 0.25 0.28 0.34 0.42 0.48 0.45 0.41 0.41 0.42 0.41 0.43 0.46 0.45 0.44 0.47 0.51 0.53 0.57 0.55 0.56 0.58 0.57 0.57 0.61
0.08 0.17 0.31 0.56 1.11 1.56 1.22 0.58 0.38 0.42 0.44 0.41 0.45 0.54 0.61 0.41 0.28 0.29 0.34 0.23 0.12 0.10 0.11 0.13 0.20 0.21 0.22 0.25 0.32 0.40 0.39 0.37 0.37 0.38 0.38 0.39 0.45 0.52 0.52 0.55 0.58 0.58 0.59 0.53 0.51 0.48 0.46 0.49 0.55
0.09 0.15 0.27 0.62 0.94 1.13 0.85 0.41 0.36 0.33 0.44 0.50 0.51 0.49 0.55 0.38 0.26 0.21 0.24 0.17 0.10 0.07 0.09 0.16 0.19 0.17 0.17 0.20 0.28 0.37 0.35 0.32 0.32 0.33 0.38 0.41 0.46 0.52 0.57 0.60 0.59 0.55 0.54 0.50 0.45 0.39 0.38 0.42 0.48
0.10 0.15 0.31 0.53 0.53 0.52 0.45 0.32 0.30 0.30 0.42 0.49 0.57 0.58 0.48 0.33 0.30 0.27 0.20 0.16 0.08 0.07 0.10 0.14 0.18 0.17 0.15 0.17 0.23 0.32 0.33 0.30 0.32 0.35 0.40 0.42 0.44 0.49 0.51 0.50 0.50 0.51 0.50 0.48 0.43 0.34 0.38 0.46 0.52
0.10 0.19 0.45 0.49 0.39 0.43 0.40 0.31 0.29 0.26 0.37 0.51 0.51 0.62 0.62 0.44 0.29 0.23 0.19 0.19 0.12 0.09 0.09 0.12 0.17 0.17 0.17 0.18 0.23 0.27 0.32 0.31 0.31 0.34 0.35 0.39 0.43 0.48 0.47 0.42 0.43 0.48 0.48 0.43 0.38 0.35 0.42 0.48 0.54
0.10 0.24 0.41 0.37 0.31 0.30 0.29 0.25 0.28 0.28 0.38 0.60 0.51 0.60 0.81 0.62 0.41 0.32 0.23 0.22 0.18 0.14 0.09 0.13 0.20 0.22 0.23 0.22 0.26 0.29 0.29 0.31 0.35 0.33 0.30 0.33 0.37 0.39 0.43 0.43 0.43 0.46 0.48 0.42 0.36 0.42 0.46 0.50 0.54
0.09 0.19 0.25 0.26 0.22 0.26 0.24 0.25 0.27 0.26 0.44 0.72 0.56 0.71 1.03 0.97 0.59 0.45 0.44 0.34 0.29 0.25 0.22 0.20 0.23 0.27 0.31 0.33 0.32 0.36 0.34 0.33 0.37 0.36 0.35 0.35 0.35 0.35 0.38 0.48 0.49 0.45 0.45 0.44 0.37 0.38 0.41 0.42 0.45
0.04 0.07 0.13 0.18 0.18 0.19 0.16 0.18 0.21 0.35 0.46 0.59 0.49 0.72 1.21 1.11 0.71 0.65 0.71 0.64 0.67 0.60 0.45 0.30 0.29 0.34 0.33 0.31 0.39 0.45 0.40 0.39 0.38 0.37 0.37 0.39 0.40 0.40 0.44 0.49 0.55 0.57 0.54 0.50 0.43 0.38 0.40 0.45 0.51
0.04 0.08 0.13 0.14 0.14 0.13 0.13 0.14 0.18 0.31 0.46 0.62 0.65 0.71 0.93 0.83 0.80 0.88 0.98 1.06 1.08 1.14 0.93 0.58 0.45 0.45 0.48 0.41 0.42 0.54 0.53 0.47 0.47 0.50 0.51 0.66 0.80 0.72 0.82 0.75 0.81 0.81 0.75 0.70 0.65 0.62 0.59 0.56 0.53
0.04 0.09 0.09 0.07 0.08 0.11 0.11 0.14 0.21 0.36 0.61 0.88 0.90 0.90 1.06 1.00 0.83 0.88 0.94 1.11 1.21 1.32 1.20 0.89 0.76 0.59 0.53 0.48 0.60 0.82 0.78 0.80 0.84 0.92 0.89 1.15 1.35 1.24 0.98 1.08 1.30 1.29 1.25 1.13 1.12 1.12 0.93 0.75 0.73
0.03 0.04 0.04 0.05 0.05 0.08 0.10 0.13 0.21 0.40 0.77 1.20 1.45 1.47 1.33 1.20 1.12 1.09 1.05 1.22 1.42 1.46 1.31 1.08 1.00 0.89 0.73 0.85 0.80 0.94 1.15 1.29 1.15 1.06 1.13 1.45 1.38 1.14 1.14 1.24 1.43 1.63 1.56 1.46 1.62 1.72 1.43 1.36 1.61
0.02 0.01 0.02 0.03 0.04 0.05 0.09 0.13 0.22 0.40 0.75 1.02 1.25 1.53 1.65 1.50 1.53 1.49 1.46 1.68 1.87 1.77 1.60 1.41 1.21 1.08 1.05 1.05 1.00 1.05 1.12 1.28 1.28 1.34 1.33 1.53 1.73 1.65 1.66 1.75 1.74 1.84 1.98 2.25 2.17 2.23 2.05 1.94 1.87
0.02 0.02 0.03 0.03 0.04 0.05 0.08 0.18 0.30 0.46 0.59 0.77 0.93 1.10 1.37 1.70 2.02 2.12 2.23 2.59 2.43 2.26 2.14 1.93 1.58 1.54 1.48 1.52 1.54 1.31 1.31 1.40 1.62 1.76 1.72 1.70 1.87 1.90 1.97 1.99 2.02 1.89 1.99 2.18 2.43 2.34 2.43 2.47 2.26
0.02 0.03 0.04 0.05 0.05 0.06 0.10 0.25 0.31 0.49 0.58 0.69 0.89 1.09 1.62 2.21 2.37 2.64 3.05 3.30 3.15 2.92 2.94 2.73 2.38 2.31 2.19 1.98 1.89 1.81 1.67 1.79 1.86 1.95 1.95 1.95 2.16 2.31 2.25 2.08 2.09 1.99 2.01 2.11 2.31 2.41 2.73 2.68 2.60
0.02 0.04 0.07 0.07 0.08 0.11 0.15 0.33 0.42 0.56 0.66 0.77 1.12 1.31 1.75 2.10 2.36 2.50 2.98 3.31 3.28 3.21 3.38 3.39 3.23 3.19 3.03 2.72 2.40 2.19 2.14 2.06 2.22 2.31 2.25 2.30 2.34 2.49 2.42 2.29 2.11 2.11 2.14 2.28 2.34 2.45 2.75 2.74 2.64
0.04 0.10 0.18 0.15 0.13 0.15 0.24 0.64 0.57 0.64 0.86 1.11 1.34 1.48 1.72 1.88 2.25 2.39 2.76 3.24 3.49 3.50 3.69 3.91 3.86 3.86 3.62 3.32 2.99 2.74 2.54 2.46 2.45 2.43 2.44 2.37 2.49 2.54 2.56 2.34 2.09 2.21 2.18 2.30 2.57 2.67 2.82 2.97 2.97
0.08 0.13 0.26 0.28 0.22 0.18 0.34 0.78 0.79 0.87 1.02 1.13 1.25 1.50 1.67 1.65 2.00 2.43 2.75 3.32 3.73 3.86 4.23 4.58 4.65 4.56 4.19 3.76 3.49 3.37 3.13 2.89 2.71 2.68 2.58 2.50 2.51 2.43 2.53 2.33 2.22 2.30 2.46 2.50 2.33 2.81 3.06 3.10 3.08
0.09 0.09 0.15 0.23 0.22 0.22 0.40 0.60 0.73 0.93 1.09 1.21 1.22 1.35 1.37 1.51 1.98 2.51 2.86 3.21 3.85 4.37 4.95 4.98 4.91 5.16 4.91 4.53 4.26 4.00 3.59 3.24 2.96 2.81 2.68 2.48 2.38 2.31 2.55 2.25 2.22 2.39 2.60 2.62 2.67 3.03 3.13 2.99 3.11
0.07 0.12 0.20 0.25 0.23 0.35 0.54 0.70 0.82 0.94 1.00 1.18 1.28 1.23 1.28 1.57 2.00 2.42 2.83 3.24 3.65 4.20 4.75 5.27 5.33 5.21 4.98 4.63 4.16 3.80 3.41 3.19 2.95 2.71 2.51 2.44 2.40 2.46 2.79 2.47 2.61 2.52 2.52 2.55 2.71 2.93 2.88 2.73 3.08
0.09 0.15 0.24 0.29 0.24 0.34 0.53 0.80 0.96 0.96 0.95 1.04 1.21 1.36 1.39 1.66 1.98 2.41 2.88 3.12 3.28 3.61 4.06 4.45 4.69 4.37 3.94 3.73 3.66 3.51 3.47 3.08 2.93 2.89 2.88 2.63 2.63 2.59 2.56 2.66 2.56 2.58 2.60 2.42 2.49 2.78 2.64 2.30 2.67
0.13 0.14 0.14 0.19 0.22 0.36 0.57 0.99 1.10 0.91 0.86 0.94 1.07 1.35 1.56 1.62 1.90 2.22 2.65 2.84 2.90 3.06 3.23 3.37 3.51 3.54 3.51 3.58 3.68 3.71 3.80 3.47 3.34 3.26 3.15 2.79 2.69 2.61 2.61 2.49 2.39 2.45 2.37 2.27 2.25 2.43 2.53 2.34 2.32
0.15 0.09 0.07 0.11 0.24 0.53 0.65 1.14 1.29 1.05 1.00 1.03 1.08 1.21 1.31 1.48 1.57 1.70 2.01 2.43 2.39 2.42 2.68 3.09 3.23 3.35 3.53 3.76 3.76 3.73 3.61 3.48 3.48 3.56 3.55 3.42 3.15 2.86 2.63 2.43 2.29 2.19 2.09 2.14 1.90 2.14 2.31 2.38 2.07
0.08 0.05 0.07 0.11 0.23 0.44 0.54 0.84 1.12 1.17 1.12 1.03 1.02 1.12 1.19 1.27 1.34 1.43 1.64 2.07 2.15 2.05 2.33 2.80 3.29 3.52 3.69 3.89 3.96 4.14 3.96 3.77 3.64 3.67 3.71 3.50 3.27 2.96 2.64 2.52 2.39 2.24 2.08 1.99 1.92 2.09 2.02 2.04 1.97
0.05 0.08 0.16 0.24 0.43 0.80 0.64 0.70 1.13 1.14 0.99 0.90 0.82 0.86 0.96 0.93 1.00 1.17 1.48 1.90 2.12 2.20 2.42 2.75 3.17 3.49 3.68 3.80 3.84 3.85 3.79 3.73 3.51 3.39 3.14 2.82 2.70 2.57 2.38 2.30 2.21 2.07 2.04 2.03 1.98 1.95 1.92 1.96 2.03
0.06 0.17 0.55 0.88 1.15 1.20 0.64 0.67 1.02 0.88 0.83 0.76 0.83 0.86 0.77 0.76 0.84 0.84 0.96 1.12 1.26 1.45 1.70 1.92 2.21 2.56 2.85 3.05 3.11 3.04 3.19 3.21 2.95 2.70 2.53 2.24 2.01 1.83 1.80 1.87 1.87 1.81 1.85 1.89 1.98 1.87 1.78 1.87 1.99
0.07 0.12 0.36 0.58 0.74 0.87 0.79 1.10 1.12 0.77 0.67 0.67 0.74 0.73 0.59 0.53 0.53 0.54 0.59 0.66 0.89 1.15 1.49 1.68 1.74 1.88 2.18 2.37 2.41 2.43 2.50 2.46 2.29 2.33 2.11 1.89 1.72 1.57 1.62 1.68 1.66 1.64 1.68 1.65 1.85 1.71 1.63 1.71 1.72
0.06 0.07 0.11 0.20 0.30 0.59 0.91 1.26 1.18 0.83 0.73 0.65 0.55 0.49 0.46 0.37 0.36 0.40 0.43 0.48 0.65 0.92 1.17 1.29 1.43 1.65 1.94 2.15 2.11 2.06 1.92 1.89 1.95 1.93 1.78 1.68 1.67 1.56 1.61 1.56 1.60 1.63 1.67 1.75 1.85 1.68 1.61 1.77 1.71
0.07 0.08 0.10 0.15 0.31 0.54 0.83 1.19 1.31 1.04 0.93 0.72 0.64 0.66 0.49 0.36 0.32 0.39 0.39 0.43 0.51 0.64 0.89 1.09 1.26 1.52 1.69 1.81 1.81 1.70 1.70 1.66 1.69 1.63 1.58 1.54 1.61 1.67 1.69 1.64 1.68 1.67 1.65 1.69 1.74 1.53 1.54 1.74 1.78
0.10 0.10 0.11 0.12 0.16 0.37 0.74 1.01 0.94 0.89 0.79 0.66 0.66 0.64 0.55 0.48 0.36 0.33 0.36 0.41 0.54 0.68 0.87 1.11 1.30 1.42 1.52 1.53 1.54 1.58 1.54 1.53 1.58 1.50 1.44 1.47 1.62 1.68 1.65 1.61 1.63 1.63 1.59 1.65 1.69 1.52 1.62 1.74 1.77
0.11 0.11 0.12 0.16 0.15 0.18 0.40 0.75 0.66 0.63 0.66 0.64 0.62 0.63 0.59 0.50 0.46 0.44 0.48 0.52 0.62 0.76 0.86 1.13 1.39 1.44 1.51 1.57 1.67 1.77 1.81 1.82 1.75 1.55 1.45 1.51 1.60 1.66 1.68 1.68 1.67 1.57 1.59 1.77 1.81 1.70 1.76 1.82 1.80

GEFSSGP_prec_meanprecacc_222.txt.gz
Total_Precipitation_Accumulation
0.06 0.17 0.35 0.50 0.84 1.25 1.18 0.69 0.45 0.43 0.47 0.45 0.53 0.52 0.49 0.50 0.69 1.13 0.62 0.32 0.20 0.20 0.22 0.28 0.32 0.32 0.38 0.46 0.55 0.60 0.57 0.55 0.57 0.57 0.53 0.55 0.55 0.53 0.52 0.54 0.59 0.63 0.67 0.65 0.66 0.66 0.64 0.64 0.68
0.08 0.17 0.31 0.57 1.11 1.57 1.22 0.60 0.39 0.43 0.44 0.42 0.46 0.54 0.61 0.42 0.28 0.30 0.36 0.27 0.14 0.12 0.13 0.16 0.24 0.25 0.27 0.34 0.44 0.57 0.56 0.53 0.53 0.49 0.47 0.47 0.51 0.57 0.58 0.60 0.65 0.67 0.67 0.62 0.60 0.55 0.51 0.54 0.61
0.09 0.16 0.28 0.63 0.94 1.13 0.86 0.42 0.36 0.34 0.44 0.50 0.51 0.49 0.55 0.38 0.27 0.22 0.26 0.18 0.11 0.08 0.11 0.19 0.22 0.20 0.21 0.25 0.35 0.46 0.44 0.41 0.41 0.41 0.44 0.46 0.51 0.56 0.61 0.64 0.65 0.62 0.61 0.58 0.53 0.46 0.44 0.46 0.53
0.10 0.15 0.31 0.54 0.54 0.53 0.45 0.33 0.30 0.30 0.42 0.49 0.57 0.58 0.48 0.35 0.31 0.29 0.21 0.17 0.09 0.09 0.11 0.17 0.21 0.19 0.18 0.21 0.28 0.36 0.37 0.35 0.37 0.40 0.44 0.46 0.49 0.54 0.55 0.54 0.55 0.57 0.56 0.54 0.51 0.42 0.45 0.51 0.57
0.11 0.19 0.45 0.50 0.42 0.43 0.40 0.31 0.29 0.26 0.37 0.51 0.51 0.63 0.64 0.47 0.32 0.26 0.20 0.21 0.13 0.11 0.11 0.15 0.21 0.20 0.18 0.21 0.26 0.31 0.35 0.34 0.35 0.38 0.39 0.43 0.48 0.52 0.51 0.45 0.47 0.52 0.53 0.49 0.44 0.42 0.47 0.52 0.57
0.10 0.24 0.41 0.37 0.32 0.31 0.29 0.25 0.28 0.29 0.38 0.60 0.51 0.60 0.83 0.66 0.44 0.35 0.25 0.24 0.21 0.16 0.10 0.14 0.23 0.24 0.25 0.25 0.29 0.33 0.31 0.34 0.38 0.37 0.33 0.36 0.41 0.43 0.46 0.46 0.46 0.50 0.52 0.47 0.41 0.47 0.50 0.54 0.58
0.09 0.19 0.25 0.26 0.23 0.26 0.24 0.25 0.27 0.26 0.44 0.72 0.56 0.71 1.05 1.03 0.65 0.48 0.47 0.36 0.32 0.27 0.23 0.20 0.24 0.28 0.33 0.36 0.35 0.38 0.36 0.35 0.39 0.39 0.37 0.38 0.39 0.38 0.41 0.51 0.53 0.50 0.49 0.47 0.41 0.42 0.44 0.45 0.49
0.04 0.08 0.13 0.18 0.18 0.19 0.17 0.19 0.21 0.35 0.47 0.59 0.49 0.72 1.22 1.15 0.76 0.68 0.74 0.65 0.68 0.61 0.46 0.31 0.29 0.35 0.34 0.33 0.42 0.48 0.44 0.41 0.40 0.40 0.41 0.42 0.43 0.43 0.47 0.51 0.59 0.61 0.56 0.52 0.46 0.41 0.42 0.48 0.55
0.04 0.08 0.14 0.14 0.14 0.13 0.13 0.14 0.18 0.31 0.46 0.62 0.65 0.71 0.95 0.85 0.82 0.90 1.02 1.08 1.10 1.14 0.95 0.59 0.46 0.46 0.49 0.42 0.44 0.57 0.57 0.49 0.49 0.52 0.56 0.70 0.82 0.73 0.83 0.76 0.85 0.84 0.77 0.72 0.68 0.65 0.63 0.60 0.56
0.04 0.09 0.10 0.07 0.08 0.12 0.11 0.14 0.22 0.36 0.61 0.89 0.90 0.91 1.08 1.01 0.84 0.90 0.98 1.14 1.23 1.34 1.23 0.92 0.78 0.60 0.54 0.49 0.62 0.84 0.79 0.81 0.85 0.93 0.91 1.16 1.35 1.25 0.98 1.10 1.33 1.33 1.29 1.16 1.15 1.15 0.96 0.78 0.75
0.03 0.04 0.05 0.06 0.06 0.08 0.11 0.13 0.21 0.40 0.77 1.21 1.45 1.47 1.33 1.20 1.13 1.10 1.09 1.24 1.45 1.48 1.36 1.12 1.02 0.90 0.74 0.86 0.82 0.96 1.16 1.30 1.15 1.06 1.13 1.46 1.38 1.14 1.15 1.25 1.44 1.65 1.58 1.47 1.63 1.73 1.45 1.39 1.65
0.02 0.02 0.02 0.04 0.04 0.06 0.10 0.13 0.22 0.41 0.75 1.02 1.25 1.53 1.65 1.50 1.54 1.51 1.49 1.71 1.89 1.78 1.62 1.42 1.23 1.10 1.07 1.07 1.02 1.07 1.13 1.29 1.29 1.34 1.34 1.54 1.73 1.66 1.67 1.77 1.75 1.85 2.00 2.26 2.19 2.25 2.07 1.97 1.90
0.02 0.02 0.03 0.04 0.05 0.07 0.09 0.19 0.30 0.46 0.59 0.78 0.94 1.10 1.37 1.71 2.03 2.14 2.24 2.60 2.46 2.29 2.17 1.95 1.61 1.56 1.51 1.56 1.57 1.33 1.33 1.42 1.63 1.78 1.73 1.71 1.89 1.92 1.99 2.01 2.04 1.91 2.02 2.21 2.46 2.37 2.44 2.49 2.28
0.02 0.03 0.04 0.05 0.06 0.08 0.12 0.26 0.31 0.50 0.59 0.70 0.90 1.09 1.62 2.21 2.39 2.66 3.07 3.33 3.18 2.95 2.96 2.74 2.39 2.32 2.22 2.01 1.92 1.84 1.69 1.81 1.88 1.97 1.97 1.97 2.18 2.33 2.27 2.10 2.12 2.02 2.05 2.15 2.35 2.44 2.77 2.73 2.67
0.02 0.05 0.07 0.08 0.09 0.12 0.16 0.35 0.43 0.58 0.67 0.78 1.12 1.31 1.76 2.11 2.38 2.52 3.00 3.33 3.29 3.22 3.39 3.39 3.23 3.20 3.04 2.73 2.42 2.21 2.16 2.08 2.24 2.33 2.27 2.32 2.36 2.51 2.43 2.31 2.13 2.13 2.18 2.32 2.38 2.49 2.79 2.79 2.71
0.04 0.11 0.19 0.16 0.14 0.16 0.25 0.65 0.59 0.65 0.87 1.11 1.34 1.49 1.73 1.89 2.26 2.40 2.77 3.26 3.49 3.50 3.70 3.92 3.87 3.86 3.63 3.33 3.01 2.76 2.57 2.49 2.48 2.46 2.46 2.38 2.51 2.56 2.58 2.36 2.11 2.24 2.21 2.34 2.61 2.71 2.86 3.01 3.01
0.08 0.14 0.27 0.28 0.22 0.18 0.34 0.79 0.80 0.88 1.02 1.14 1.26 1.51 1.67 1.66 2.01 2.45 2.76 3.33 3.74 3.87 4.24 4.60 4.66 4.57 4.21 3.78 3.53 3.42 3.17 2.93 2.75 2.72 2.61 2.52 2.55 2.48 2.55 2.35 2.24 2.33 2.49 2.53 2.38 2.85 3.10 3.15 3.13
0.09 0.09 0.16 0.23 0.22 0.22 0.41 0.60 0.73 0.93 1.09 1.21 1.23 1.35 1.38 1.51 1.99 2.52 2.87 3.23 3.87 4.38 4.97 5.00 4.94 5.18 4.94 4.58 4.32 4.06 3.63 3.28 2.99 2.85 2.72 2.53 2.43 2.37 2.58 2.28 2.24 2.42 2.63 2.64 2.70 3.08 3.17 3.03 3.15
0.07 0.12 0.20 0.25 0.23 0.36 0.55 0.71 0.83 0.95 1.01 1.19 1.29 1.24 1.29 1.58 2.01 2.44 2.85 3.26 3.67 4.23 4.77 5.30 5.37 5.24 5.05 4.73 4.25 3.85 3.45 3.23 2.98 2.75 2.56 2.49 2.45 2.51 2.85 2.51 2.65 2.56 2.56 2.59 2.75 2.97 2.92 2.77 3.13
0.09 0.16 0.25 0.30 0.24 0.34 0.54 0.81 0.97 0.97 0.95 1.04 1.22 1.37 1.41 1.67 1.99 2.43 2.90 3.15 3.34 3.67 4.10 4.48 4.72 4.42 4.07 3.84 3.72 3.56 3.50 3.12 2.96 2.92 2.93 2.69 2.69 2.64 2.62 2.72 2.60 2.62 2.65 2.46 2.54 2.82 2.68 2.34 2.72
0.13 0.14 0.15 0.20 0.22 0.36 0.58 0.99 1.11 0.91 0.87 0.95 1.08 1.36 1.57 1.64 1.91 2.23 2.66 2.88 2.99 3.14 3.27 3.39 3.56 3.61 3.60 3.62 3.71 3.74 3.83 3.51 3.37 3.30 3.18 2.83 2.74 2.66 2.67 2.55 2.44 2.49 2.42 2.33 2.30 2.47 2.58 2.39 2.38
0.15 0.09 0.07 0.11 0.24 0.53 0.65 1.15 1.29 1.05 1.00 1.04 1.08 1.22 1.33 1.51 1.60 1.71 2.03 2.45 2.43 2.45 2.70 3.12 3.28 3.40 3.58 3.80 3.79 3.76 3.64 3.52 3.52 3.63 3.60 3.46 3.20 2.92 2.69 2.49 2.35 2.24 2.14 2.20 1.97 2.21 2.37 2.44 2.14
0.08 0.05 0.07 0.11 0.24 0.44 0.54 0.85 1.13 1.17 1.12 1.04 1.02 1.13 1.20 1.29 1.38 1.45 1.65 2.08 2.16 2.07 2.35 2.84 3.34 3.57 3.74 3.92 3.98 4.17 3.99 3.80 3.69 3.74 3.79 3.57 3.33 3.03 2.70 2.59 2.46 2.30 2.14 2.06 2.00 2.16 2.09 2.10 2.04
0.05 0.08 0.17 0.24 0.44 0.80 0.65 0.70 1.13 1.14 0.99 0.90 0.82 0.87 0.97 0.94 1.01 1.19 1.51 1.93 2.15 2.23 2.47 2.82 3.23 3.55 3.73 3.85 3.87 3.88 3.83 3.77 3.56 3.45 3.21 2.87 2.75 2.63 2.44 2.36 2.28 2.14 2.10 2.08 2.04 2.02 1.99 2.03 2.10
0.07 0.17 0.55 0.88 1.15 1.20 0.64 0.67 1.02 0.88 0.83 0.76 0.83 0.86 0.78 0.77 0.86 0.88 1.00 1.15 1.30 1.49 1.74 1.96 2.26 2.62 2.90 3.09 3.14 3.08 3.24 3.26 2.99 2.74 2.56 2.27 2.05 1.87 1.85 1.92 1.92 1.87 1.91 1.94 2.03 1.91 1.82 1.93 2.05
0.07 0.12 0.36 0.58 0.74 0.87 0.79 1.10 1.12 0.77 0.67 0.67 0.74 0.73 0.59 0.55 0.55 0.56 0.61 0.68 0.93 1.20 1.55 1.73 1.79 1.92 2.22 2.41 2.46 2.48 2.55 2.51 2.33 2.35 2.12 1.91 1.74 1.60 1.66 1.74 1.72 1.70 1.73 1.70 1.89 1.73 1.68 1.77 1.79
0.06 0.07 0.12 0.20 0.30 0.59 0.91 1.26 1.18 0.83 0.73 0.65 0.55 0.49 0.47 0.38 0.38 0.43 0.45 0.51 0.68 0.96 1.22 1.34 1.48 1.70 1.98 2.20 2.15 2.10 1.96 1.93 1.98 1.95 1.80 1.69 1.70 1.60 1.66 1.61 1.67 1.69 1.73 1.80 1.90 1.74 1.68 1.83 1.77
0.07 0.08 0.10 0.15 0.31 0.54 0.83 1.19 1.31 1.04 0.93 0.72 0.64 0.66 0.49 0.37 0.35 0.42 0.42 0.45 0.54 0.68 0.93 1.13 1.31 1.56 1.73 1.84 1.85 1.74 1.75 1.70 1.71 1.66 1.62 1.57 1.64 1.71 1.73 1.69 1.73 1.71 1.68 1.72 1.77 1.56 1.57 1.77 1.82
0.10 0.10 0.11 0.12 0.16 0.37 0.74 1.01 0.94 0.89 0.79 0.66 0.66 0.64 0.55 0.49 0.38 0.35 0.38 0.43 0.56 0.71 0.90 1.15 1.32 1.45 1.55 1.56 1.58 1.63 1.59 1.58 1.63 1.56 1.50 1.52 1.67 1.73 1.69 1.65 1.67 1.65 1.61 1.67 1.71 1.54 1.65 1.77 1.80
0.11 0.11 0.12 0.16 0.15 0.18 0.40 0.75 0.66 0.63 0.66 0.64 0.63 0.63 0.60 0.52 0.48 0.46 0.52 0.54 0.63 0.77 0.88 1.15 1.40 1.45 1.53 1.59 1.71 1.82 1.87 1.89 1.83 1.62 1.50 1.55 1.64 1.71 1.73 1.72 1.71 1.60 1.61 1.79 1.83 1.72 1.78 1.85 1.82

GEFSSGP_prec_meanprecacc_228.txt.gz
Total_Precipitation_Accumulation
0.06 0.17 0.35 0.50 0.84 1.25 1.18 0.70 0.45 0.43 0.47 0.45 0.53 0.53 0.50 0.51 0.71 1.16 0.65 0.37 0.26 0.30 0.32 0.39 0.48 0.49 0.58 0.63 0.67 0.72 0.69 0.67 0.69 0.71 0.69 0.74 0.75 0.70 0.66 0.69 0.77 0.82 0.83 0.77 0.76 0.76 0.74 0.72 0.75
0.08 0.17 0.31 0.57 1.11 1.57 1.23 0.60 0.39 0.43 0.44 0.42 0.46 0.54 0.62 0.43 0.29 0.31 0.38 0.31 0.18 0.19 0.22 0.25 0.36 0.40 0.45 0.53 0.63 0.72 0.68 0.66 0.68 0.68 0.67 0.66 0.65 0.69 0.71 0.76 0.82 0.80 0.77 0.70 0.70 0.66 0.60 0.62 0.69
0.09 0.16 0.28 0.63 0.94 1.13 0.86 0.43 0.36 0.34 0.44 0.50 0.51 0.50 0.56 0.40 0.28 0.24 0.28 0.21 0.13 0.12 0.16 0.27 0.33 0.35 0.42 0.45 0.54 0.65 0.62 0.61 0.63 0.61 0.61 0.59 0.62 0.68 0.74 0.77 0.77 0.70 0.69 0.66 0.63 0.56 0.53 0.55 0.63
0.10 0.15 0.31 0.54 0.54 0.53 0.46 0.33 0.30 0.30 0.42 0.49 0.58 0.59 0.49 0.36 0.32 0.30 0.23 0.18 0.10 0.11 0.14 0.23 0.29 0.27 0.29 0.34 0.42 0.54 0.56 0.55 0.55 0.52 0.54 0.56 0.58 0.65 0.66 0.64 0.65 0.65 0.64 0.62 0.58 0.51 0.54 0.59 0.66
0.11 0.19 0.45 0.50 0.42 0.44 0.40 0.31 0.29 0.26 0.37 0.51 0.51 0.64 0.65 0.49 0.33 0.26 0.20 0.21 0.14 0.12 0.13 0.18 0.27 0.24 0.24 0.28 0.35 0.43 0.49 0.48 0.47 0.47 0.46 0.52 0.56 0.61 0.60 0.54 0.55 0.61 0.61 0.56 0.51 0.50 0.54 0.59 0.64
0.10 0.24 0.41 0.37 0.33 0.31 0.29 0.25 0.28 0.29 0.38 0.60 0.51 0.62 0.84 0.68 0.44 0.35 0.25 0.24 0.21 0.16 0.11 0.16 0.27 0.28 0.29 0.30 0.35 0.41 0.40 0.42 0.46 0.45 0.40 0.44 0.48 0.50 0.53 0.52 0.54 0.57 0.59 0.52 0.47 0.53 0.56 0.59 0.63
0.09 0.19 0.25 0.26 0.23 0.26 0.24 0.25 0.27 0.26 0.44 0.72 0.56 0.73 1.07 1.04 0.65 0.49 0.47 0.36 0.32 0.27 0.24 0.22 0.26 0.31 0.36 0.41 0.41 0.43 0.42 0.41 0.44 0.45 0.44 0.44 0.44 0.43 0.46 0.56 0.60 0.55 0.52 0.51 0.46 0.47 0.48 0.49 0.53
0.04 0.08 0.14 0.18 0.18 0.19 0.17 0.19 0.21 0.35 0.47 0.60 0.49 0.73 1.24 1.16 0.77 0.69 0.75 0.65 0.68 0.62 0.47 0.32 0.30 0.37 0.36 0.36 0.47 0.53 0.48 0.46 0.45 0.46 0.47 0.47 0.47 0.46 0.49 0.55 0.64 0.64 0.58 0.55 0.50 0.46 0.46 0.52 0.59
0.04 0.08 0.14 0.14 0.14 0.13 0.13 0.14 0.18 0.31 0.46 0.62 0.65 0.72 0.95 0.85 0.83 0.91 1.02 1.08 1.10 1.15 0.95 0.59 0.46 0.47 0.50 0.44 0.46 0.61 0.62 0.54 0.54 0.57 0.59 0.72 0.84 0.75 0.86 0.82 0.90 0.88 0.81 0.77 0.74 0.72 0.70 0.65 0.60
0.04 0.09 0.10 0.07 0.08 0.12 0.11 0.14 0.22 0.36 0.61 0.89 0.90 0.91 1.08 1.01 0.84 0.90 0.98 1.14 1.24 1.34 1.23 0.92 0.78 0.60 0.54 0.49 0.64 0.87 0.82 0.84 0.88 0.95 0.93 1.18 1.37 1.28 1.00 1.14 1.40 1.38 1.35 1.23 1.21 1.21 1.01 0.81 0.78
0.03 0.04 0.05 0.06 0.06 0.08 0.11 0.13 0.21 0.40 0.77 1.21 1.46 1.47 1.34 1.21 1.14 1.10 1.09 1.24 1.45 1.49 1.36 1.13 1.03 0.91 0.75 0.87 0.84 0.98 1.18 1.32 1.17 1.08 1.15 1.48 1.40 1.16 1.16 1.28 1.46 1.68 1.61 1.51 1.66 1.77 1.49 1.42 1.67
0.02 0.02 0.02 0.04 0.04 0.06 0.10 0.13 0.22 0.41 0.76 1.03 1.25 1.53 1.65 1.51 1.55 1.53 1.49 1.71 1.90 1.78 1.62 1.43 1.24 1.11 1.08 1.07 1.03 1.08 1.15 1.32 1.31 1.37 1.36 1.57 1.76 1.69 1.70 1.81 1.78 1.89 2.05 2.33 2.23 2.29 2.10 1.99 1.92
0.02 0.02 0.03 0.04 0.05 0.07 0.09 0.19 0.30 0.47 0.60 0.78 0.94 1.10 1.37 1.71 2.04 2.16 2.27 2.61 2.47 2.29 2.17 1.96 1.62 1.58 1.52 1.57 1.59 1.34 1.35 1.44 1.66 1.81 1.76 1.74 1.93 1.96 2.04 2.07 2.11 1.96 2.08 2.28 2.51 2.41 2.48 2.52 2.30
0.02 0.03 0.04 0.05 0.06 0.08 0.13 0.27 0.31 0.51 0.59 0.70 0.90 1.09 1.63 2.21 2.39 2.67 3.08 3.33 3.19 2.95 2.96 2.75 2.40 2.34 2.24 2.04 1.96 1.87 1.70 1.82 1.90 1.99 1.99 1.99 2.21 2.37 2.32 2.17 2.18 2.08 2.10 2.21 2.42 2.48 2.82 2.79 2.72
0.02 0.05 0.07 0.08 0.09 0.12 0.18 0.37 0.45 0.58 0.67 0.78 1.12 1.32 1.76 2.11 2.39 2.53 3.01 3.33 3.29 3.23 3.39 3.40 3.24 3.21 3.06 2.77 2.46 2.24 2.18 2.09 2.27 2.36 2.29 2.34 2.39 2.55 2.48 2.37 2.19 2.19 2.23 2.38 2.45 2.55 2.83 2.85 2.77
0.04 0.11 0.19 0.16 0.14 0.16 0.26 0.67 0.61 0.66 0.87 1.11 1.35 1.49 1.73 1.90 2.27 2.41 2.78 3.26 3.49 3.50 3.71 3.93 3.88 3.87 3.65 3.39 3.07 2.81 2.60 2.53 2.53 2.50 2.49 2.41 2.54 2.60 2.64 2.43 2.17 2.29 2.25 2.39 2.68 2.78 2.93 3.07 3.08
0.08 0.14 0.27 0.28 0.22 0.18 0.35 0.80 0.81 0.88 1.02 1.14 1.26 1.52 1.67 1.66 2.02 2.45 2.77 3.33 3.74 3.88 4.25 4.61 4.68 4.59 4.23 3.83 3.59 3.47 3.22 2.98 2.80 2.76 2.65 2.56 2.58 2.51 2.61 2.41 2.30 2.37 2.53 2.57 2.41 2.90 3.17 3.22 3.20
0.09 0.09 0.16 0.23 0.22 0.23 0.41 0.60 0.73 0.93 1.09 1.22 1.23 1.36 1.39 1.52 1.99 2.53 2.87 3.24 3.88 4.39 4.98 5.02 4.96 5.21 4.98 4.64 4.37 4.11 3.69 3.33 3.03 2.89 2.76 2.56 2.46 2.39 2.62 2.32 2.29 2.46 2.67 2.70 2.76 3.14 3.25 3.10 3.23
0.07 0.12 0.20 0.25 0.23 0.36 0.55 0.71 0.83 0.95 1.01 1.19 1.29 1.25 1.29 1.59 2.01 2.45 2.85 3.27 3.68 4.24 4.79 5.32 5.39 5.28 5.11 4.79 4.30 3.90 3.50 3.28 3.03 2.80 2.61 2.53 2.49 2.54 2.88 2.54 2.69 2.60 2.62 2.66 2.82 3.03 2.99 2.85 3.21
0.10 0.16 0.25 0.30 0.24 0.35 0.54 0.81 0.97 0.97 0.95 1.04 1.22 1.38 1.41 1.67 2.00 2.43 2.90 3.15 3.35 3.69 4.12 4.49 4.73 4.45 4.11 3.87 3.76 3.60 3.55 3.17 3.01 2.98 2.99 2.73 2.73 2.68 2.65 2.77 2.67 2.68 2.73 2.56 2.65 2.92 2.77 2.43 2.81
0.13 0.14 0.15 0.20 0.22 0.36 0.58 0.99 1.11 0.91 0.87 0.95 1.08 1.36 1.58 1.64 1.91 2.23 2.67 2.88 2.99 3.15 3.28 3.40 3.57 3.63 3.62 3.65 3.74 3.78 3.89 3.56 3.43 3.36 3.26 2.88 2.78 2.71 2.72 2.62 2.51 2.58 2.51 2.43 2.41 2.60 2.71 2.50 2.48
0.15 0.09 0.07 0.11 0.24 0.53 0.65 1.15 1.29 1.05 1.00 1.04 1.08 1.22 1.33 1.51 1.60 1.71 2.03 2.45 2.43 2.46 2.71 3.13 3.29 3.42 3.61 3.86 3.83 3.81 3.70 3.59 3.59 3.69 3.66 3.52 3.25 2.98 2.76 2.56 2.43 2.32 2.22 2.30 2.08 2.32 2.51 2.60 2.27
0.09 0.06 0.07 0.11 0.24 0.44 0.54 0.85 1.13 1.17 1.12 1.04 1.02 1.13 1.20 1.29 1.38 1.46 1.66 2.08 2.17 2.08 2.36 2.84 3.34 3.58 3.75 3.94 4.02 4.21 4.03 3.86 3.75 3.80 3.85 3.63 3.37 3.06 2.73 2.63 2.52 2.40 2.25 2.17 2.10 2.26 2.19 2.23 2.18
0.05 0.09 0.17 0.24 0.44 0.80 0.65 0.70 1.13 1.14 0.99 0.90 0.82 0.87 0.97 0.94 1.02 1.20 1.52 1.94 2.15 2.23 2.47 2.83 3.24 3.56 3.74 3.85 3.89 3.92 3.88 3.83 3.62 3.50 3.25 2.92 2.78 2.67 2.47 2.41 2.35 2.22 2.19 2.17 2.12 2.09 2.06 2.11 2.18
0.07 0.17 0.56 0.88 1.15 1.20 0.64 0.67 1.03 0.88 0.83 0.76 0.83 0.87 0.78 0.78 0.86 0.88 1.00 1.16 1.31 1.50 1.74 1.98 2.28 2.64 2.91 3.10 3.16 3.11 3.29 3.31 3.04 2.79 2.60 2.31 2.09 1.92 1.91 2.00 2.01 1.95 1.97 2.00 2.09 1.97 1.88 1.98 2.11
0.07 0.12 0.36 0.58 0.74 0.87 0.79 1.10 1.12 0.77 0.67 0.67 0.74 0.73 0.60 0.55 0.55 0.56 0.61 0.69 0.94 1.22 1.57 1.75 1.80 1.94 2.23 2.42 2.48 2.51 2.59 2.53 2.36 2.40 2.16 1.94 1.78 1.66 1.73 1.82 1.78 1.75 1.78 1.74 1.94 1.79 1.72 1.82 1.86
0.06 0.07 0.12 0.20 0.30 0.59 0.91 1.26 1.18 0.83 0.73 0.65 0.55 0.49 0.47 0.38 0.38 0.43 0.46 0.51 0.69 0.98 1.24 1.37 1.50 1.72 2.00 2.21 2.18 2.14 1.99 1.95 2.00 1.98 1.83 1.72 1.74 1.65 1.70 1.65 1.71 1.73 1.76 1.83 1.93 1.79 1.74 1.92 1.86
0.07 0.08 0.10 0.15 0.31 0.54 0.83 1.19 1.31 1.04 0.93 0.72 0.64 0.66 0.49 0.37 0.35 0.43 0.42 0.45 0.54 0.70 0.95 1.15 1.32 1.58 1.74 1.86 1.87 1.78 1.78 1.72 1.74 1.69 1.64 1.60 1.67 1.73 1.75 1.71 1.76 1.73 1.71 1.74 1.80 1.60 1.62 1.82 1.87
0.10 0.10 0.11 0.12 0.16 0.37 0.74 1.01 0.94 0.89 0.79 0.66 0.66 0.64 0.55 0.49 0.38 0.35 0.38 0.43 0.56 0.71 0.91 1.16 1.35 1.46 1.56 1.57 1.60 1.66 1.62 1.61 1.65 1.59 1.53 1.54 1.69 1.75 1.71 1.67 1.68 1.67 1.63 1.69 1.72 1.55 1.67 1.79 1.83
0.11 0.11 0.12 0.16 0.15 0.18 0.40 0.75 0.66 0.63 0.66 0.64 0.63 0.63 0.60 0.52 0.48 0.46 0.52 0.54 0.63 0.78 0.90 1.17 1.42 1.46 1.54 1.60 1.73 1.85 1.89 1.92 1.85 1.64 1.53 1.58 1.66 1.72 1.75 1.73 1.71 1.61 1.63 1.80 1.85 1.74 1.81 1.88 1.86

GEFSSGP_prec_meanprecacc_234.txt.gz
Total_Precipitation_Accumulation
0.06 0.17 0.36 0.52 0.88 1.29 1.20 0.70 0.45 0.43 0.48 0.45 0.54 0.54 0.53 0.55 0.76 1.28 0.81 0.58 0.47 0.46 0.42 0.48 0.59 0.59 0.68 0.74 0.79 0.86 0.83 0.82 0.85 0.86 0.84 0.90 0.91 0.85 0.79 0.80 0.88 0.95 0.97 0.92 0.93 0.94 0.90 0.88 0.90
0.08 0.17 0.32 0.59 1.16 1.60 1.25 0.60 0.39 0.43 0.44 0.42 0.46 0.55 0.63 0.45 0.33 0.40 0.52 0.43 0.28 0.26 0.29 0.33 0.48 0.53 0.58 0.67 0.74 0.82 0.80 0.79 0.82 0.82 0.82 0.80 0.82 0.84 0.84 0.87 0.93 0.92 0.89 0.82 0.82 0.79 0.73 0.74 0.80
0.10 0.16 0.29 0.65 0.95 1.14 0.87 0.43 0.37 0.34 0.44 0.50 0.52 0.50 0.57 0.42 0.30 0.30 0.37 0.27 0.18 0.16 0.22 0.34 0.43 0.49 0.58 0.60 0.67 0.77 0.72 0.74 0.76 0.75 0.77 0.78 0.78 0.82 0.87 0.89 0.89 0.81 0.79 0.77 0.73 0.65 0.62 0.63 0.71
0.10 0.16 0.32 0.54 0.54 0.53 0.46 0.33 0.30 0.30 0.42 0.49 0.58 0.60 0.51 0.38 0.34 0.33 0.26 0.20 0.12 0.14 0.17 0.28 0.38 0.37 0.39 0.47 0.57 0.66 0.68 0.71 0.71 0.68 0.73 0.75 0.72 0.76 0.77 0.74 0.74 0.73 0.72 0.70 0.66 0.58 0.61 0.66 0.75
0.11 0.20 0.46 0.50 0.42 0.44 0.40 0.31 0.29 0.26 0.37 0.51 0.52 0.65 0.66 0.50 0.34 0.27 0.22 0.23 0.16 0.15 0.16 0.23 0.35 0.37 0.40 0.45 0.52 0.58 0.65 0.64 0.63 0.65 0.65 0.67 0.67 0.69 0.70 0.61 0.61 0.69 0.69 0.63 0.58 0.58 0.63 0.68 0.74
0.11 0.25 0.42 0.37 0.33 0.31 0.29 0.25 0.28 0.29 0.38 0.60 0.51 0.62 0.85 0.69 0.45 0.35 0.26 0.26 0.22 0.18 0.14 0.20 0.32 0.37 0.41 0.42 0.46 0.53 0.53 0.55 0.61 0.60 0.54 0.53 0.55 0.57 0.60 0.58 0.61 0.65 0.65 0.58 0.54 0.62 0.65 0.66 0.69
0.09 0.19 0.26 0.26 0.23 0.26 0.25 0.25 0.27 0.26 0.44 0.72 0.56 0.73 1.08 1.05 0.66 0.49 0.48 0.37 0.33 0.29 0.26 0.24 0.29 0.34 0.40 0.46 0.47 0.50 0.49 0.48 0.51 0.51 0.50 0.50 0.49 0.48 0.51 0.62 0.66 0.61 0.57 0.55 0.51 0.52 0.53 0.53 0.57
0.05 0.08 0.14 0.18 0.18 0.19 0.17 0.19 0.21 0.35 0.47 0.60 0.50 0.73 1.24 1.17 0.77 0.69 0.75 0.66 0.69 0.64 0.49 0.34 0.32 0.39 0.40 0.39 0.51 0.58 0.54 0.51 0.50 0.51 0.52 0.53 0.51 0.50 0.54 0.60 0.68 0.68 0.62 0.58 0.53 0.49 0.48 0.55 0.62
0.04 0.08 0.14 0.14 0.14 0.13 0.13 0.14 0.18 0.31 0.46 0.62 0.66 0.72 0.95 0.85 0.83 0.91 1.02 1.08 1.10 1.16 0.97 0.61 0.48 0.50 0.53 0.46 0.48 0.65 0.66 0.59 0.60 0.63 0.64 0.78 0.92 0.82 0.92 0.86 0.94 0.91 0.84 0.79 0.77 0.73 0.71 0.66 0.62
0.05 0.10 0.10 0.07 0.08 0.12 0.11 0.14 0.22 0.36 0.62 0.89 0.91 0.91 1.08 1.01 0.84 0.90 0.98 1.14 1.24 1.35 1.25 0.94 0.79 0.62 0.57 0.51 0.67 0.91 0.88 0.90 0.95 1.04 0.99 1.26 1.45 1.35 1.04 1.17 1.43 1.41 1.37 1.24 1.22 1.22 1.03 0.84 0.81
0.04 0.04 0.05 0.06 0.06 0.08 0.11 0.14 0.21 0.40 0.78 1.21 1.46 1.48 1.34 1.21 1.14 1.11 1.09 1.25 1.45 1.49 1.37 1.14 1.04 0.92 0.76 0.90 0.87 1.02 1.22 1.38 1.23 1.11 1.18 1.54 1.45 1.20 1.21 1.34 1.50 1.72 1.65 1.56 1.69 1.79 1.52 1.45 1.70
0.02 0.02 0.02 0.04 0.04 0.06 0.10 0.13 0.22 0.41 0.76 1.03 1.26 1.54 1.66 1.52 1.56 1.54 1.50 1.71 1.90 1.79 1.63 1.43 1.24 1.12 1.09 1.09 1.06 1.10 1.17 1.36 1.34 1.39 1.39 1.62 1.85 1.77 1.78 1.91 1.87 1.98 2.13 2.41 2.29 2.34 2.15 2.02 1.94
0.02 0.02 0.03 0.04 0.05 0.07 0.09 0.19 0.30 0.47 0.60 0.78 0.94 1.10 1.37 1.72 2.05 2.17 2.27 2.62 2.47 2.29 2.18 1.97 1.63 1.59 1.54 1.59 1.63 1.36 1.37 1.47 1.69 1.84 1.79 1.81 2.02 2.05 2.12 2.16 2.19 2.02 2.14 2.32 2.56 2.46 2.54 2.57 2.34
0.02 0.03 0.04 0.05 0.06 0.08 0.13 0.27 0.32 0.51 0.59 0.70 0.90 1.09 1.63 2.22 2.40 2.67 3.08 3.34 3.19 2.96 2.97 2.75 2.40 2.35 2.26 2.06 1.98 1.88 1.71 1.85 1.93 2.02 2.02 2.01 2.25 2.42 2.37 2.22 2.25 2.13 2.14 2.25 2.48 2.55 2.90 2.88 2.78
0.02 0.05 0.07 0.08 0.09 0.12 0.19 0.39 0.46 0.59 0.67 0.78 1.12 1.32 1.76 2.11 2.39 2.54 3.01 3.33 3.29 3.23 3.40 3.41 3.25 3.23 3.09 2.80 2.49 2.27 2.19 2.11 2.30 2.39 2.31 2.36 2.42 2.59 2.51 2.43 2.25 2.24 2.28 2.44 2.54 2.63 2.90 2.92 2.84
0.05 0.11 0.20 0.16 0.14 0.16 0.27 0.70 0.63 0.66 0.87 1.11 1.35 1.49 1.73 1.90 2.27 2.41 2.78 3.26 3.50 3.50 3.71 3.93 3.89 3.89 3.67 3.42 3.11 2.84 2.62 2.55 2.55 2.52 2.50 2.42 2.56 2.63 2.67 2.46 2.21 2.33 2.30 2.45 2.75 2.86 3.03 3.18 3.18
0.08 0.15 0.27 0.29 0.22 0.18 0.36 0.81 0.82 0.89 1.02 1.14 1.26 1.52 1.67 1.67 2.02 2.45 2.77 3.33 3.74 3.88 4.25 4.61 4.68 4.60 4.25 3.85 3.62 3.51 3.25 3.01 2.81 2.77 2.66 2.58 2.59 2.52 2.63 2.45 2.34 2.41 2.58 2.62 2.46 2.99 3.27 3.32 3.32
0.10 0.10 0.16 0.24 0.23 0.23 0.42 0.61 0.75 0.94 1.10 1.22 1.23 1.36 1.39 1.52 1.99 2.53 2.87 3.24 3.89 4.40 4.98 5.02 4.98 5.23 5.00 4.68 4.41 4.17 3.74 3.36 3.05 2.90 2.78 2.58 2.49 2.41 2.65 2.36 2.33 2.49 2.73 2.77 2.84 3.23 3.33 3.18 3.32
0.08 0.13 0.20 0.25 0.23 0.36 0.55 0.71 0.83 0.95 1.01 1.19 1.29 1.25 1.29 1.59 2.02 2.45 2.86 3.27 3.69 4.25 4.79 5.33 5.43 5.32 5.16 4.86 4.37 3.97 3.56 3.33 3.05 2.82 2.62 2.55 2.50 2.55 2.91 2.58 2.76 2.67 2.70 2.76 2.91 3.16 3.11 2.94 3.29
0.10 0.16 0.25 0.30 0.24 0.35 0.54 0.81 0.97 0.98 0.96 1.04 1.22 1.38 1.41 1.67 2.00 2.44 2.91 3.16 3.35 3.70 4.12 4.50 4.75 4.47 4.15 3.93 3.81 3.65 3.59 3.19 3.04 3.00 3.02 2.75 2.75 2.71 2.68 2.83 2.74 2.77 2.84 2.67 2.76 3.07 2.91 2.55 2.95
0.13 0.15 0.16 0.21 0.23 0.36 0.59 1.01 1.12 0.93 0.88 0.95 1.08 1.36 1.58 1.65 1.93 2.23 2.67 2.89 3.00 3.17 3.30 3.42 3.58 3.65 3.65 3.68 3.77 3.82 3.93 3.60 3.46 3.40 3.31 2.92 2.82 2.75 2.77 2.68 2.58 2.67 2.61 2.55 2.55 2.77 2.86 2.63 2.63
0.16 0.11 0.08 0.11 0.25 0.53 0.66 1.16 1.30 1.07 1.02 1.04 1.08 1.22 1.33 1.51 1.61 1.72 2.04 2.46 2.45 2.47 2.73 3.15 3.32 3.44 3.63 3.87 3.85 3.84 3.75 3.65 3.64 3.75 3.72 3.57 3.29 3.02 2.80 2.62 2.51 2.42 2.32 2.42 2.20 2.46 2.66 2.73 2.40
0.10 0.08 0.08 0.11 0.24 0.44 0.55 0.85 1.13 1.19 1.14 1.04 1.02 1.13 1.20 1.29 1.38 1.47 1.67 2.09 2.17 2.08 2.36 2.86 3.37 3.60 3.77 3.96 4.03 4.24 4.07 3.92 3.80 3.85 3.91 3.68 3.42 3.10 2.76 2.68 2.58 2.47 2.33 2.26 2.21 2.38 2.30 2.36 2.32
0.06 0.10 0.18 0.25 0.44 0.81 0.65 0.71 1.13 1.15 1.00 0.90 0.82 0.87 0.97 0.94 1.02 1.20 1.52 1.95 2.16 2.23 2.48 2.85 3.26 3.57 3.75 3.86 3.90 3.94 3.93 3.89 3.68 3.55 3.30 2.96 2.83 2.71 2.51 2.44 2.39 2.28 2.27 2.27 2.24 2.21 2.17 2.23 2.30
0.09 0.19 0.58 0.91 1.16 1.20 0.64 0.68 1.04 0.89 0.84 0.76 0.83 0.87 0.78 0.78 0.86 0.88 1.00 1.17 1.31 1.50 1.75 1.99 2.29 2.65 2.92 3.11 3.18 3.14 3.33 3.35 3.08 2.83 2.64 2.35 2.13 1.96 1.95 2.04 2.07 2.01 2.05 2.07 2.18 2.08 2.00 2.09 2.22
0.10 0.13 0.39 0.62 0.76 0.87 0.79 1.11 1.12 0.78 0.67 0.67 0.74 0.73 0.60 0.55 0.55 0.56 0.61 0.69 0.95 1.22 1.57 1.76 1.82 1.96 2.25 2.44 2.51 2.54 2.62 2.57 2.39 2.44 2.20 1.98 1.81 1.69 1.76 1.86 1.84 1.81 1.83 1.80 2.01 1.87 1.81 1.90 1.94
0.07 0.08 0.12 0.21 0.31 0.60 0.92 1.27 1.18 0.83 0.73 0.65 0.55 0.49 0.47 0.38 0.38 0.43 0.46 0.51 0.69 0.98 1.25 1.38 1.51 1.74 2.02 2.23 2.20 2.17 2.02 1.99 2.05 2.02 1.87 1.76 1.78 1.70 1.76 1.71 1.78 1.79 1.83 1.89 1.99 1.85 1.80 1.97 1.92
0.08 0.08 0.11 0.16 0.32 0.55 0.84 1.20 1.32 1.05 0.93 0.72 0.64 0.66 0.49 0.37 0.35 0.43 0.42 0.46 0.55 0.70 0.96 1.16 1.34 1.60 1.76 1.88 1.89 1.80 1.80 1.75 1.77 1.72 1.68 1.64 1.71 1.77 1.80 1.77 1.84 1.80 1.76 1.79 1.84 1.65 1.66 1.86 1.92
0.10 0.10 0.11 0.12 0.16 0.37 0.76 1.05 0.96 0.90 0.79 0.66 0.66 0.64 0.55 0.49 0.38 0.35 0.39 0.43 0.56 0.71 0.91 1.17 1.35 1.47 1.57 1.58 1.62 1.68 1.65 1.64 1.67 1.61 1.56 1.59 1.73 1.79 1.74 1.70 1.71 1.70 1.67 1.73 1.76 1.59 1.71 1.83 1.88
0.11 0.11 0.12 0.17 0.16 0.18 0.41 0.77 0.68 0.64 0.67 0.64 0.63 0.63 0.60 0.52 0.48 0.46 0.53 0.54 0.63 0.78 0.90 1.18 1.43 1.47 1.55 1.61 1.74 1.87 1.92 1.94 1.88 1.67 1.55 1.61 1.70 1.76 1.78 1.76 1.75 1.64 1.66 1.83 1.88 1.77 1.84 1.92 1.89

GEFSSGP_prec_meanprecacc_240.txt.gz
Total_Precipitation_Accumulation
0.08 0.22 0.45 0.64 0.96 1.36 1.23 0.73 0.46 0.44 0.49 0.47 0.55 0.56 0.57 0.59 0.85 1.46 1.04 0.71 0.55 0.52 0.48 0.55 0.65 0.65 0.75 0.79 0.85 0.95 0.93 0.91 0.94 0.96 0.96 1.02 1.03 0.96 0.90 0.92 1.00 1.05 1.07 1.02 1.06 1.09 1.04 0.98 0.97
0.12 0.27 0.45 0.69 1.23 1.64 1.28 0.62 0.40 0.44 0.45 0.43 0.47 0.57 0.65 0.49 0.41 0.58 0.71 0.56 0.36 0.32 0.34 0.37 0.54 0.58 0.63 0.72 0.79 0.88 0.89 0.87 0.89 0.92 0.95 0.94 0.96 0.97 0.98 0.99 1.04 1.02 0.98 0.90 0.93 0.90 0.83 0.81 0.87
0.15 0.25 0.39 0.74 0.99 1.16 0.90 0.45 0.37 0.34 0.45 0.51 0.53 0.51 0.59 0.47 0.39 0.45 0.50 0.35 0.23 0.23 0.31 0.42 0.50 0.54 0.62 0.64 0.71 0.81 0.79 0.82 0.85 0.85 0.89 0.91 0.92 0.97 0.99 1.00 0.98 0.89 0.87 0.84 0.81 0.73 0.69 0.68 0.76
0.19 0.25 0.37 0.58 0.56 0.56 0.47 0.34 0.30 0.30 0.42 0.50 0.59 0.62 0.53 0.42 0.41 0.43 0.33 0.25 0.16 0.19 0.29 0.45 0.49 0.42 0.43 0.50 0.60 0.70 0.74 0.79 0.80 0.76 0.83 0.89 0.89 0.88 0.87 0.84 0.81 0.79 0.78 0.76 0.72 0.64 0.66 0.71 0.81
0.17 0.24 0.50 0.52 0.44 0.45 0.41 0.32 0.30 0.26 0.37 0.52 0.53 0.67 0.69 0.54 0.38 0.32 0.27 0.27 0.18 0.19 0.23 0.36 0.47 0.44 0.45 0.49 0.55 0.62 0.70 0.71 0.69 0.71 0.78 0.87 0.81 0.77 0.77 0.67 0.66 0.73 0.72 0.67 0.62 0.62 0.67 0.73 0.79
0.12 0.27 0.45 0.39 0.35 0.32 0.30 0.26 0.28 0.29 0.38 0.60 0.52 0.63 0.88 0.73 0.48 0.39 0.29 0.28 0.25 0.20 0.18 0.26 0.40 0.45 0.48 0.48 0.52 0.60 0.61 0.64 0.68 0.72 0.78 0.70 0.63 0.62 0.66 0.62 0.64 0.68 0.69 0.62 0.57 0.65 0.68 0.70 0.74
0.11 0.20 0.28 0.28 0.25 0.28 0.25 0.26 0.27 0.26 0.44 0.73 0.57 0.73 1.10 1.08 0.68 0.51 0.50 0.40 0.36 0.31 0.28 0.27 0.36 0.44 0.51 0.56 0.58 0.62 0.61 0.59 0.61 0.67 0.69 0.61 0.55 0.52 0.54 0.65 0.69 0.65 0.62 0.61 0.56 0.57 0.56 0.57 0.62
0.06 0.09 0.15 0.19 0.20 0.21 0.17 0.19 0.21 0.35 0.47 0.60 0.50 0.74 1.26 1.19 0.79 0.71 0.77 0.68 0.73 0.68 0.52 0.36 0.35 0.43 0.45 0.46 0.60 0.68 0.65 0.61 0.59 0.60 0.62 0.60 0.58 0.54 0.57 0.63 0.71 0.71 0.67 0.64 0.58 0.53 0.52 0.58 0.64
0.06 0.10 0.16 0.15 0.15 0.14 0.13 0.14 0.18 0.31 0.46 0.62 0.66 0.72 0.96 0.86 0.84 0.92 1.04 1.11 1.13 1.20 1.02 0.65 0.50 0.51 0.55 0.48 0.53 0.72 0.74 0.65 0.65 0.68 0.71 0.84 0.96 0.85 0.95 0.90 0.97 0.94 0.87 0.83 0.80 0.76 0.73 0.67 0.63
0.06 0.11 0.10 0.08 0.09 0.12 0.11 0.14 0.22 0.36 0.62 0.89 0.91 0.92 1.09 1.02 0.84 0.90 1.00 1.17 1.27 1.38 1.29 0.99 0.83 0.64 0.59 0.54 0.70 0.94 0.90 0.92 0.98 1.06 1.01 1.29 1.49 1.38 1.07 1.22 1.48 1.44 1.39 1.27 1.24 1.24 1.04 0.85 0.82
0.04 0.05 0.05 0.06 0.06 0.08 0.11 0.14 0.21 0.40 0.78 1.22 1.47 1.49 1.34 1.22 1.15 1.11 1.10 1.26 1.47 1.51 1.41 1.19 1.08 0.96 0.81 0.93 0.90 1.05 1.25 1.41 1.26 1.14 1.21 1.57 1.48 1.24 1.24 1.38 1.55 1.74 1.67 1.58 1.71 1.81 1.54 1.47 1.72
0.02 0.02 0.02 0.04 0.05 0.06 0.10 0.14 0.22 0.41 0.76 1.03 1.26 1.54 1.66 1.53 1.57 1.55 1.51 1.73 1.91 1.80 1.67 1.47 1.28 1.15 1.12 1.12 1.09 1.14 1.20 1.39 1.39 1.47 1.45 1.66 1.89 1.81 1.82 1.95 1.92 2.01 2.17 2.45 2.33 2.37 2.17 2.05 1.97
0.02 0.03 0.03 0.04 0.06 0.07 0.09 0.19 0.31 0.47 0.60 0.78 0.94 1.10 1.38 1.72 2.05 2.17 2.28 2.62 2.47 2.30 2.20 1.99 1.65 1.60 1.56 1.61 1.65 1.39 1.43 1.53 1.75 1.90 1.88 1.88 2.11 2.09 2.17 2.24 2.24 2.07 2.19 2.37 2.62 2.50 2.57 2.61 2.38
0.03 0.04 0.04 0.05 0.07 0.08 0.14 0.28 0.34 0.53 0.60 0.70 0.90 1.09 1.63 2.22 2.40 2.68 3.09 3.34 3.20 2.97 2.99 2.77 2.42 2.36 2.27 2.09 2.00 1.91 1.76 1.91 1.98 2.08 2.07 2.07 2.32 2.46 2.41 2.27 2.30 2.18 2.18 2.29 2.51 2.58 2.92 2.91 2.83
0.03 0.05 0.08 0.09 0.10 0.13 0.20 0.43 0.50 0.61 0.68 0.79 1.13 1.32 1.77 2.12 2.39 2.54 3.01 3.33 3.30 3.24 3.42 3.42 3.26 3.23 3.11 2.83 2.52 2.29 2.23 2.18 2.36 2.44 2.36 2.42 2.48 2.63 2.54 2.45 2.27 2.27 2.32 2.49 2.58 2.67 2.94 2.96 2.89
0.06 0.12 0.22 0.17 0.15 0.17 0.28 0.73 0.66 0.68 0.89 1.14 1.36 1.50 1.74 1.90 2.27 2.41 2.78 3.26 3.50 3.51 3.72 3.94 3.90 3.90 3.69 3.44 3.13 2.87 2.65 2.61 2.60 2.56 2.55 2.49 2.62 2.66 2.70 2.50 2.24 2.35 2.33 2.49 2.79 2.90 3.07 3.22 3.23
0.10 0.16 0.29 0.30 0.23 0.19 0.37 0.83 0.84 0.91 1.04 1.16 1.27 1.52 1.68 1.67 2.02 2.45 2.77 3.34 3.75 3.88 4.26 4.62 4.69 4.62 4.26 3.87 3.64 3.53 3.27 3.04 2.85 2.81 2.70 2.61 2.63 2.56 2.67 2.48 2.37 2.44 2.61 2.65 2.49 3.03 3.32 3.37 3.36
0.13 0.12 0.18 0.25 0.24 0.24 0.43 0.62 0.76 0.95 1.11 1.23 1.24 1.37 1.39 1.53 1.99 2.53 2.88 3.24 3.89 4.40 4.99 5.03 4.99 5.26 5.02 4.69 4.43 4.19 3.76 3.39 3.07 2.93 2.82 2.62 2.53 2.44 2.68 2.39 2.36 2.53 2.77 2.83 2.90 3.29 3.37 3.21 3.36
0.09 0.15 0.23 0.27 0.25 0.38 0.56 0.73 0.85 0.97 1.04 1.22 1.32 1.26 1.30 1.60 2.03 2.46 2.86 3.28 3.69 4.26 4.82 5.42 5.50 5.35 5.18 4.87 4.38 3.99 3.58 3.35 3.07 2.84 2.64 2.58 2.54 2.58 2.93 2.60 2.79 2.71 2.75 2.80 2.97 3.21 3.17 2.99 3.34
0.11 0.18 0.27 0.31 0.26 0.36 0.56 0.83 1.00 1.01 1.00 1.09 1.28 1.41 1.43 1.69 2.02 2.46 2.93 3.18 3.36 3.71 4.15 4.58 4.83 4.50 4.17 3.94 3.82 3.65 3.60 3.21 3.06 3.02 3.05 2.78 2.79 2.74 2.72 2.87 2.78 2.81 2.89 2.71 2.80 3.11 2.96 2.60 3.00
0.14 0.17 0.17 0.22 0.25 0.38 0.61 1.03 1.15 0.97 0.92 0.99 1.11 1.38 1.59 1.65 1.94 2.25 2.69 2.91 3.01 3.17 3.32 3.45 3.64 3.68 3.67 3.69 3.77 3.83 3.94 3.62 3.48 3.43 3.34 2.95 2.86 2.80 2.82 2.73 2.63 2.72 2.67 2.59 2.59 2.81 2.91 2.68 2.68
0.17 0.11 0.09 0.13 0.26 0.56 0.68 1.18 1.33 1.10 1.05 1.07 1.11 1.23 1.34 1.51 1.62 1.73 2.04 2.47 2.46 2.48 2.74 3.17 3.36 3.46 3.64 3.88 3.85 3.85 3.76 3.67 3.66 3.77 3.75 3.59 3.31 3.06 2.83 2.66 2.55 2.46 2.37 2.47 2.24 2.51 2.72 2.79 2.46
0.11 0.08 0.09 0.13 0.27 0.46 0.56 0.88 1.15 1.21 1.16 1.08 1.04 1.14 1.20 1.29 1.39 1.48 1.68 2.10 2.18 2.08 2.37 2.88 3.38 3.61 3.78 3.97 4.04 4.25 4.09 3.94 3.81 3.87 3.92 3.70 3.44 3.12 2.79 2.70 2.62 2.52 2.38 2.30 2.26 2.44 2.36 2.40 2.38
0.07 0.11 0.19 0.26 0.46 0.83 0.66 0.72 1.14 1.16 1.03 0.95 0.85 0.88 0.97 0.95 1.03 1.21 1.53 1.96 2.16 2.24 2.49 2.86 3.27 3.58 3.76 3.88 3.92 3.96 3.94 3.90 3.69 3.57 3.32 2.97 2.84 2.72 2.53 2.46 2.41 2.30 2.30 2.30 2.27 2.26 2.22 2.26 2.34
0.09 0.19 0.59 0.93 1.18 1.24 0.66 0.69 1.05 0.90 0.85 0.80 0.87 0.87 0.78 0.78 0.87 0.89 1.01 1.17 1.31 1.51 1.76 2.00 2.31 2.67 2.94 3.13 3.20 3.16 3.34 3.37 3.10 2.85 2.65 2.37 2.15 1.98 1.97 2.06 2.09 2.04 2.07 2.09 2.21 2.11 2.03 2.12 2.25
0.10 0.14 0.40 0.64 0.78 0.90 0.81 1.12 1.13 0.79 0.68 0.68 0.77 0.74 0.60 0.55 0.55 0.57 0.62 0.70 0.96 1.25 1.61 1.79 1.85 1.99 2.27 2.46 2.53 2.56 2.63 2.58 2.41 2.47 2.22 2.01 1.85 1.73 1.80 1.89 1.87 1.83 1.86 1.82 2.04 1.91 1.85 1.93 1.98
0.07 0.08 0.13 0.22 0.33 0.64 0.94 1.28 1.19 0.84 0.74 0.66 0.56 0.50 0.47 0.39 0.39 0.45 0.47 0.53 0.76 1.04 1.28 1.40 1.54 1.76 2.04 2.25 2.22 2.18 2.03 2.01 2.07 2.05 1.89 1.80 1.82 1.74 1.80 1.78 1.84 1.83 1.87 1.92 2.02 1.88 1.82 1.99 1.93
0.08 0.09 0.11 0.17 0.35 0.60 0.86 1.22 1.34 1.06 0.94 0.74 0.65 0.67 0.50 0.39 0.36 0.44 0.43 0.49 0.62 0.73 0.96 1.17 1.35 1.62 1.78 1.89 1.90 1.81 1.82 1.77 1.79 1.75 1.71 1.68 1.75 1.80 1.83 1.83 1.91 1.84 1.79 1.81 1.86 1.67 1.69 1.89 1.94
0.11 0.11 0.12 0.14 0.19 0.40 0.78 1.06 0.97 0.91 0.80 0.67 0.66 0.64 0.56 0.50 0.40 0.36 0.40 0.44 0.57 0.72 0.92 1.18 1.37 1.49 1.59 1.60 1.63 1.69 1.67 1.67 1.70 1.64 1.59 1.63 1.78 1.81 1.76 1.72 1.75 1.74 1.70 1.74 1.77 1.61 1.73 1.85 1.90
0.12 0.12 0.13 0.18 0.17 0.19 0.42 0.78 0.68 0.65 0.68 0.65 0.63 0.63 0.63 0.54 0.50 0.48 0.54 0.56 0.65 0.79 0.92 1.21 1.47 1.50 1.56 1.63 1.76 1.88 1.94 1.97 1.91 1.70 1.59 1.65 1.74 1.80 1.80 1.78 1.77 1.66 1.68 1.85 1.89 1.79 1.86 1.93 1.90

GEFSSGP_prec_meanprecacc_246.txt.gz
Total_Precipitation_Accumulation
0.08 0.23 0.47 0.66 0.97 1.36 1.24 0.75 0.49 0.48 0.53 0.50 0.59 0.60 0.60 0.62 0.89 1.51 1.08 0.76 0.63 0.63 0.59 0.64 0.77 0.78 0.86 0.89 0.94 1.04 1.02 1.00 1.04 1.05 1.04 1.11 1.13 1.07 1.01 1.02 1.10 1.14 1.17 1.18 1.27 1.25 1.15 1.06 1.03
0.12 0.29 0.46 0.70 1.23 1.65 1.30 0.63 0.43 0.49 0.51 0.47 0.51 0.60 0.69 0.52 0.44 0.64 0.77 0.63 0.44 0.42 0.42 0.45 0.64 0.68 0.72 0.81 0.89 0.98 0.98 0.98 1.00 1.00 1.03 1.03 1.05 1.09 1.10 1.09 1.13 1.10 1.07 1.02 1.07 1.04 0.93 0.89 0.93
0.16 0.27 0.41 0.75 1.00 1.16 0.91 0.46 0.38 0.36 0.47 0.54 0.56 0.54 0.64 0.53 0.45 0.52 0.58 0.43 0.30 0.29 0.37 0.50 0.57 0.61 0.67 0.70 0.79 0.90 0.89 0.94 0.95 0.93 0.96 0.99 1.04 1.10 1.10 1.09 1.06 0.96 0.93 0.91 0.90 0.84 0.78 0.75 0.82
0.21 0.27 0.39 0.59 0.56 0.56 0.48 0.34 0.31 0.30 0.43 0.51 0.61 0.64 0.58 0.49 0.49 0.50 0.39 0.30 0.20 0.24 0.34 0.51 0.56 0.47 0.47 0.55 0.67 0.78 0.85 0.90 0.89 0.85 0.91 0.99 1.01 1.01 0.97 0.92 0.87 0.84 0.82 0.81 0.79 0.71 0.73 0.77 0.87
0.18 0.26 0.52 0.53 0.45 0.46 0.42 0.32 0.30 0.27 0.39 0.54 0.54 0.68 0.74 0.61 0.44 0.36 0.29 0.30 0.23 0.26 0.32 0.46 0.57 0.51 0.50 0.54 0.61 0.70 0.84 0.83 0.80 0.81 0.88 0.99 0.93 0.90 0.87 0.74 0.69 0.75 0.75 0.71 0.67 0.68 0.73 0.79 0.85
0.13 0.29 0.46 0.40 0.36 0.33 0.31 0.26 0.29 0.29 0.39 0.62 0.53 0.64 0.93 0.79 0.52 0.41 0.31 0.31 0.30 0.31 0.30 0.36 0.49 0.52 0.55 0.55 0.59 0.67 0.69 0.73 0.79 0.84 0.89 0.83 0.78 0.76 0.76 0.68 0.68 0.71 0.73 0.67 0.62 0.71 0.73 0.74 0.79
0.12 0.22 0.29 0.28 0.26 0.28 0.25 0.26 0.28 0.27 0.44 0.73 0.58 0.75 1.14 1.13 0.72 0.54 0.52 0.42 0.41 0.36 0.35 0.36 0.44 0.51 0.57 0.64 0.64 0.67 0.67 0.67 0.74 0.80 0.81 0.76 0.69 0.64 0.63 0.70 0.74 0.70 0.68 0.67 0.62 0.62 0.62 0.64 0.68
0.07 0.10 0.16 0.19 0.21 0.21 0.17 0.19 0.22 0.35 0.47 0.61 0.50 0.75 1.28 1.22 0.81 0.73 0.79 0.70 0.75 0.71 0.57 0.41 0.39 0.48 0.53 0.54 0.68 0.75 0.71 0.68 0.70 0.73 0.77 0.74 0.67 0.61 0.64 0.70 0.77 0.77 0.72 0.69 0.62 0.58 0.57 0.64 0.70
0.06 0.10 0.17 0.15 0.15 0.15 0.13 0.15 0.18 0.31 0.46 0.63 0.66 0.73 0.97 0.87 0.85 0.94 1.06 1.12 1.16 1.23 1.06 0.68 0.54 0.59 0.65 0.57 0.60 0.78 0.81 0.74 0.76 0.80 0.85 0.94 1.02 0.89 1.00 0.97 1.04 1.00 0.92 0.89 0.86 0.83 0.79 0.72 0.68
0.06 0.12 0.10 0.08 0.09 0.12 0.12 0.15 0.22 0.36 0.62 0.89 0.92 0.92 1.09 1.02 0.86 0.93 1.02 1.19 1.29 1.41 1.33 1.02 0.88 0.74 0.67 0.59 0.73 0.97 0.94 0.98 1.03 1.12 1.08 1.34 1.52 1.41 1.10 1.28 1.57 1.53 1.48 1.35 1.33 1.31 1.09 0.88 0.84
0.04 0.05 0.05 0.06 0.06 0.09 0.11 0.14 0.21 0.41 0.79 1.22 1.47 1.49 1.35 1.23 1.17 1.13 1.12 1.28 1.49 1.53 1.44 1.22 1.13 1.04 0.86 0.95 0.91 1.07 1.28 1.44 1.29 1.18 1.24 1.60 1.50 1.25 1.26 1.41 1.61 1.81 1.72 1.62 1.74 1.84 1.56 1.48 1.73
0.03 0.02 0.02 0.04 0.05 0.06 0.10 0.14 0.23 0.41 0.77 1.03 1.26 1.54 1.66 1.53 1.58 1.56 1.52 1.74 1.93 1.82 1.71 1.50 1.30 1.19 1.15 1.15 1.11 1.16 1.22 1.41 1.42 1.49 1.47 1.68 1.91 1.83 1.84 1.99 1.96 2.05 2.19 2.47 2.34 2.40 2.20 2.07 1.99
0.02 0.03 0.03 0.04 0.06 0.07 0.10 0.19 0.31 0.48 0.60 0.78 0.94 1.11 1.38 1.73 2.06 2.18 2.29 2.64 2.49 2.32 2.23 2.01 1.67 1.63 1.58 1.64 1.68 1.41 1.45 1.56 1.78 1.93 1.90 1.90 2.13 2.11 2.18 2.26 2.28 2.10 2.21 2.38 2.63 2.53 2.60 2.64 2.42
0.03 0.04 0.05 0.06 0.07 0.09 0.15 0.29 0.34 0.54 0.60 0.70 0.90 1.10 1.64 2.22 2.40 2.69 3.09 3.35 3.22 2.99 3.01 2.79 2.44 2.38 2.31 2.12 2.04 1.93 1.79 1.93 2.01 2.11 2.09 2.11 2.35 2.49 2.42 2.29 2.32 2.21 2.21 2.31 2.53 2.61 2.96 2.96 2.88
0.03 0.06 0.09 0.09 0.10 0.13 0.21 0.44 0.52 0.63 0.68 0.80 1.14 1.33 1.78 2.12 2.40 2.55 3.02 3.34 3.31 3.26 3.43 3.44 3.28 3.25 3.14 2.86 2.54 2.32 2.25 2.21 2.40 2.47 2.39 2.45 2.51 2.65 2.56 2.49 2.31 2.30 2.36 2.54 2.62 2.70 2.98 3.00 2.93
0.07 0.12 0.22 0.18 0.15 0.18 0.29 0.74 0.67 0.69 0.89 1.15 1.37 1.51 1.75 1.91 2.28 2.42 2.79 3.27 3.51 3.53 3.73 3.96 3.91 3.91 3.71 3.46 3.16 2.90 2.68 2.63 2.62 2.58 2.58 2.51 2.65 2.69 2.73 2.53 2.28 2.39 2.38 2.55 2.83 2.94 3.10 3.26 3.27
0.11 0.16 0.29 0.30 0.23 0.20 0.37 0.83 0.84 0.91 1.04 1.16 1.28 1.53 1.69 1.68 2.03 2.46 2.78 3.35 3.76 3.89 4.27 4.65 4.72 4.64 4.29 3.90 3.67 3.55 3.30 3.07 2.88 2.84 2.73 2.64 2.65 2.59 2.70 2.51 2.40 2.47 2.66 2.71 2.54 3.08 3.37 3.42 3.42
0.13 0.12 0.19 0.26 0.24 0.25 0.44 0.63 0.76 0.96 1.12 1.23 1.24 1.38 1.40 1.53 2.00 2.54 2.88 3.25 3.90 4.41 5.01 5.10 5.08 5.31 5.05 4.70 4.45 4.20 3.78 3.41 3.11 2.97 2.86 2.66 2.57 2.49 2.72 2.43 2.40 2.56 2.81 2.88 2.96 3.34 3.42 3.28 3.45
0.10 0.16 0.23 0.28 0.25 0.39 0.58 0.74 0.86 0.98 1.06 1.25 1.34 1.28 1.31 1.61 2.04 2.48 2.87 3.29 3.70 4.27 4.85 5.47 5.61 5.42 5.21 4.89 4.40 4.01 3.60 3.37 3.10 2.87 2.68 2.62 2.58 2.63 2.99 2.66 2.84 2.76 2.80 2.84 3.02 3.27 3.22 3.04 3.39
0.11 0.19 0.28 0.32 0.27 0.37 0.58 0.85 1.02 1.03 1.02 1.11 1.30 1.44 1.46 1.71 2.04 2.47 2.94 3.19 3.37 3.71 4.16 4.60 4.86 4.53 4.20 3.97 3.83 3.66 3.62 3.23 3.07 3.04 3.06 2.80 2.82 2.79 2.79 2.97 2.87 2.88 2.95 2.76 2.84 3.15 3.00 2.64 3.04
0.14 0.17 0.18 0.23 0.25 0.39 0.62 1.04 1.17 1.00 0.94 1.01 1.13 1.41 1.61 1.67 1.95 2.26 2.71 2.92 3.02 3.18 3.33 3.47 3.65 3.69 3.69 3.73 3.80 3.85 3.96 3.63 3.49 3.44 3.35 2.97 2.89 2.83 2.87 2.80 2.72 2.80 2.73 2.66 2.66 2.85 2.94 2.73 2.74
0.17 0.12 0.10 0.13 0.27 0.56 0.68 1.18 1.33 1.11 1.06 1.08 1.12 1.24 1.35 1.52 1.63 1.74 2.05 2.48 2.46 2.49 2.76 3.19 3.39 3.49 3.67 3.90 3.87 3.86 3.77 3.67 3.67 3.79 3.77 3.61 3.33 3.08 2.87 2.69 2.59 2.51 2.43 2.53 2.31 2.57 2.76 2.83 2.53
0.11 0.08 0.09 0.13 0.27 0.47 0.56 0.88 1.15 1.21 1.17 1.08 1.05 1.14 1.21 1.30 1.40 1.49 1.69 2.11 2.19 2.10 2.38 2.91 3.41 3.66 3.80 3.98 4.05 4.26 4.10 3.95 3.82 3.88 3.94 3.71 3.45 3.13 2.80 2.72 2.64 2.54 2.41 2.35 2.31 2.51 2.43 2.46 2.44
0.08 0.11 0.19 0.27 0.47 0.83 0.66 0.72 1.14 1.16 1.03 0.95 0.86 0.88 0.98 0.96 1.03 1.22 1.54 1.96 2.17 2.25 2.50 2.86 3.29 3.62 3.79 3.89 3.93 3.97 3.95 3.91 3.71 3.59 3.33 2.97 2.84 2.72 2.53 2.47 2.43 2.32 2.31 2.32 2.31 2.32 2.29 2.32 2.38
0.10 0.19 0.60 0.94 1.18 1.24 0.66 0.69 1.05 0.90 0.85 0.80 0.87 0.87 0.79 0.78 0.87 0.89 1.01 1.18 1.32 1.52 1.79 2.04 2.36 2.72 2.96 3.14 3.21 3.17 3.35 3.38 3.11 2.87 2.67 2.37 2.15 2.00 1.99 2.08 2.11 2.05 2.08 2.11 2.24 2.15 2.07 2.15 2.28
0.10 0.14 0.40 0.65 0.78 0.90 0.81 1.12 1.14 0.79 0.68 0.69 0.77 0.74 0.60 0.55 0.55 0.57 0.62 0.71 0.97 1.26 1.62 1.81 1.87 2.01 2.28 2.47 2.54 2.57 2.65 2.60 2.42 2.49 2.24 2.02 1.85 1.74 1.81 1.91 1.88 1.84 1.87 1.83 2.05 1.92 1.87 1.96 2.01
0.08 0.08 0.13 0.22 0.33 0.64 0.94 1.28 1.19 0.84 0.74 0.66 0.56 0.50 0.48 0.40 0.39 0.45 0.48 0.54 0.77 1.05 1.28 1.41 1.55 1.78 2.04 2.26 2.23 2.20 2.05 2.03 2.09 2.07 1.91 1.81 1.83 1.75 1.81 1.80 1.85 1.85 1.87 1.93 2.03 1.89 1.84 2.02 1.96
0.08 0.09 0.11 0.17 0.35 0.60 0.86 1.22 1.34 1.06 0.94 0.74 0.65 0.67 0.50 0.39 0.36 0.44 0.44 0.50 0.64 0.75 0.99 1.18 1.37 1.64 1.79 1.91 1.93 1.85 1.86 1.81 1.83 1.77 1.73 1.70 1.77 1.81 1.84 1.84 1.93 1.85 1.79 1.82 1.87 1.68 1.70 1.90 1.95
0.11 0.11 0.12 0.14 0.19 0.40 0.78 1.06 0.97 0.91 0.80 0.67 0.66 0.64 0.56 0.50 0.40 0.36 0.41 0.46 0.59 0.74 0.94 1.20 1.40 1.53 1.60 1.62 1.66 1.73 1.71 1.71 1.74 1.67 1.61 1.65 1.80 1.83 1.78 1.75 1.77 1.75 1.71 1.75 1.79 1.62 1.75 1.88 1.92
0.12 0.12 0.13 0.18 0.18 0.19 0.42 0.78 0.68 0.65 0.68 0.65 0.63 0.64 0.63 0.54 0.50 0.48 0.55 0.57 0.66 0.80 0.94 1.23 1.50 1.54 1.59 1.64 1.78 1.91 1.97 2.00 1.94 1.74 1.62 1.68 1.76 1.82 1.83 1.81 1.78 1.68 1.70 1.87 1.92 1.82 1.91 1.97 1.93